Wetterdaten: Mittwoch, 09.11.2016
Datum Zeit Temp. Aussen Temp. o. S. +5cm Feuchte Auss BlattFeu 1 Luftdruck Regen Sonnenschein Regendauer Solar Windben Empfang
09.11.2016 00:00 1,6 C 1,7 C 0,0 C 94 % 0 lf 1007,1 hPa 0,0 l/m 0 min 0 min 0 W/m 8,4 km/h (2 Bft) 95,74 %
09.11.2016 00:02 1,6 C 1,7 C 0,0 C 94 % 0 lf 1007,1 hPa 0,0 l/m 0 min 0 min 0 W/m 12,6 km/h (3 Bft) 90,24 %
09.11.2016 00:05 1,5 C 1,1 C -0,6 C 94 % 1 lf 1007,1 hPa 0,0 l/m 0 min 0 min 0 W/m 10,5 km/h (2 Bft) 92,86 %
09.11.2016 00:06 1,5 C 1,1 C -0,6 C 94 % 1 lf 1007,1 hPa 0,0 l/m 0 min 0 min 0 W/m 8,4 km/h (2 Bft) 95,83 %
09.11.2016 00:08 1,5 C 1,1 C -0,6 C 93 % 1 lf 1007,1 hPa 0,0 l/m 0 min 0 min 2 W/m 10,5 km/h (2 Bft) 95,74 %
09.11.2016 00:10 1,5 C 1,1 C -0,6 C 93 % 1 lf 1007,0 hPa 0,0 l/m 0 min 0 min 0 W/m 10,5 km/h (2 Bft) 93,48 %
09.11.2016 00:12 1,4 C 1,1 C -0,6 C 94 % 1 lf 1007,1 hPa 0,0 l/m 0 min 0 min 0 W/m 8,4 km/h (2 Bft) 93,62 %
09.11.2016 00:14 1,4 C 1,1 C -0,6 C 94 % 1 lf 1007,0 hPa 0,0 l/m 0 min 0 min 0 W/m 16,7 km/h (3 Bft) 97,87 %
09.11.2016 00:16 1,4 C 1,1 C -0,6 C 93 % 1 lf 1007,1 hPa 0,0 l/m 0 min 0 min 2 W/m 14,6 km/h (3 Bft) 91,49 %
09.11.2016 00:18 1,4 C 1,1 C -0,6 C 93 % 1 lf 1007,1 hPa 0,0 l/m 0 min 0 min 0 W/m 12,6 km/h (3 Bft) 93,62 %
09.11.2016 00:20 1,4 C 1,1 C -0,6 C 93 % 1 lf 1007,1 hPa 0,0 l/m 0 min 0 min 0 W/m 10,5 km/h (2 Bft) 91,30 %
09.11.2016 00:22 1,4 C 1,1 C -0,6 C 93 % 1 lf 1007,0 hPa 0,0 l/m 0 min 0 min 5 W/m 12,6 km/h (3 Bft) 95,74 %
09.11.2016 00:24 1,4 C 1,1 C -0,6 C 93 % 1 lf 1007,0 hPa 0,0 l/m 0 min 0 min 5 W/m 14,6 km/h (3 Bft) 95,74 %
09.11.2016 00:26 1,4 C 1,1 C -0,6 C 93 % 1 lf 1007,0 hPa 0,0 l/m 0 min 0 min 0 W/m 8,4 km/h (2 Bft) 95,74 %
09.11.2016 00:28 1,4 C 1,1 C -0,6 C 93 % 1 lf 1007,0 hPa 0,0 l/m 0 min 0 min 0 W/m 12,6 km/h (3 Bft) 95,74 %
09.11.2016 00:30 1,3 C 1,1 C -0,6 C 93 % 1 lf 1006,9 hPa 0,0 l/m 0 min 0 min 0 W/m 12,6 km/h (3 Bft) 89,36 %
09.11.2016 00:32 1,3 C 1,1 C -0,6 C 94 % 1 lf 1006,9 hPa 0,0 l/m 0 min 0 min 5 W/m 10,5 km/h (2 Bft) 93,48 %
09.11.2016 00:34 1,3 C 1,1 C -0,6 C 94 % 1 lf 1006,9 hPa 0,0 l/m 0 min 0 min 5 W/m 14,6 km/h (3 Bft) 95,74 %
09.11.2016 00:36 1,3 C 1,1 C -0,6 C 94 % 1 lf 1006,9 hPa 0,0 l/m 0 min 0 min 0 W/m 12,6 km/h (3 Bft) 95,74 %
09.11.2016 00:38 1,3 C 1,1 C -0,6 C 94 % 1 lf 1007,0 hPa 0,0 l/m 0 min 0 min 5 W/m 16,7 km/h (3 Bft) 97,87 %
09.11.2016 00:40 1,3 C 1,1 C -0,6 C 94 % 1 lf 1006,9 hPa 0,0 l/m 0 min 0 min 0 W/m 12,6 km/h (3 Bft) 95,74 %
09.11.2016 00:42 1,3 C 1,1 C -0,6 C 94 % 1 lf 1006,9 hPa 0,0 l/m 0 min 0 min 0 W/m 14,6 km/h (3 Bft) 93,62 %
09.11.2016 00:44 1,3 C 1,7 C -0,6 C 94 % 1 lf 1006,9 hPa 0,0 l/m 0 min 0 min 5 W/m 16,7 km/h (3 Bft) 95,65 %
09.11.2016 00:46 1,3 C 1,1 C -0,6 C 94 % 1 lf 1006,9 hPa 0,0 l/m 0 min 0 min 2 W/m 10,5 km/h (2 Bft) 95,74 %
09.11.2016 00:48 1,3 C 1,1 C -0,6 C 94 % 1 lf 1006,9 hPa 0,0 l/m 0 min 0 min 0 W/m 8,4 km/h (2 Bft) 95,74 %
09.11.2016 00:50 1,3 C 1,1 C -0,6 C 94 % 1 lf 1006,8 hPa 0,0 l/m 0 min 0 min 5 W/m 10,5 km/h (2 Bft) 95,74 %
09.11.2016 00:52 1,3 C 1,1 C -0,6 C 94 % 1 lf 1006,8 hPa 0,0 l/m 0 min 0 min 5 W/m 16,7 km/h (3 Bft) 93,62 %
09.11.2016 00:54 1,3 C 1,1 C -0,6 C 94 % 1 lf 1006,7 hPa 0,0 l/m 0 min 0 min 5 W/m 8,4 km/h (2 Bft) 97,87 %
09.11.2016 00:56 1,3 C 1,1 C -0,6 C 94 % 1 lf 1006,7 hPa 0,0 l/m 0 min 0 min 5 W/m 12,6 km/h (3 Bft) 97,83 %
09.11.2016 00:58 1,2 C 1,1 C -0,6 C 94 % 1 lf 1006,6 hPa 0,0 l/m 0 min 0 min 5 W/m 10,5 km/h (2 Bft) 93,62 %
09.11.2016 01:00 1,2 C 1,1 C -0,6 C 94 % 1 lf 1006,6 hPa 0,0 l/m 0 min 0 min 5 W/m 10,5 km/h (2 Bft) 93,62 %
09.11.2016 01:02 1,2 C 1,1 C -0,6 C 94 % 1 lf 1006,5 hPa 0,0 l/m 0 min 0 min 5 W/m 10,5 km/h (2 Bft) 95,74 %
09.11.2016 01:04 1,2 C 1,1 C -0,6 C 94 % 1 lf 1006,5 hPa 0,0 l/m 0 min 0 min 5 W/m 10,5 km/h (2 Bft) 93,62 %
09.11.2016 01:06 1,2 C 1,1 C -0,6 C 94 % 1 lf 1006,5 hPa 0,0 l/m 0 min 0 min 5 W/m 8,4 km/h (2 Bft) 89,36 %
09.11.2016 01:08 1,2 C 1,1 C -0,6 C 94 % 1 lf 1006,5 hPa 0,0 l/m 0 min 0 min 5 W/m 10,5 km/h (2 Bft) 95,65 %
09.11.2016 01:10 1,2 C 1,1 C -0,6 C 94 % 1 lf 1006,4 hPa 0,0 l/m 0 min 0 min 5 W/m 10,5 km/h (2 Bft) 95,74 %
09.11.2016 01:12 1,2 C 1,1 C -0,6 C 94 % 1 lf 1006,4 hPa 0,0 l/m 0 min 0 min 5 W/m 10,5 km/h (2 Bft) 95,74 %
09.11.2016 01:14 1,2 C 1,1 C -0,6 C 94 % 1 lf 1006,4 hPa 0,0 l/m 0 min 0 min 5 W/m 12,6 km/h (3 Bft) 93,62 %
09.11.2016 01:16 1,2 C 1,1 C -0,6 C 94 % 1 lf 1006,4 hPa 0,0 l/m 0 min 0 min 0 W/m 10,5 km/h (2 Bft) 95,74 %
09.11.2016 01:18 1,2 C 1,1 C -0,6 C 94 % 1 lf 1006,3 hPa 0,0 l/m 0 min 0 min 5 W/m 8,4 km/h (2 Bft) 95,65 %
09.11.2016 01:20 1,1 C 1,1 C -0,6 C 94 % 1 lf 1006,3 hPa 0,0 l/m 0 min 0 min 5 W/m 8,4 km/h (2 Bft) 95,74 %
09.11.2016 01:22 1,1 C 1,1 C -0,6 C 94 % 1 lf 1006,2 hPa 0,0 l/m 0 min 0 min 0 W/m 6,3 km/h (2 Bft) 93,62 %
09.11.2016 01:24 1,1 C 1,1 C -0,6 C 94 % 1 lf 1006,2 hPa 0,0 l/m 0 min 0 min 0 W/m 6,3 km/h (2 Bft) 97,87 %
09.11.2016 01:26 1,1 C 1,1 C -0,6 C 94 % 1 lf 1006,2 hPa 0,0 l/m 0 min 0 min 0 W/m 6,3 km/h (2 Bft) 97,87 %
09.11.2016 01:28 1,1 C 1,1 C -0,6 C 94 % 1 lf 1006,2 hPa 0,0 l/m 0 min 0 min 0 W/m 8,4 km/h (2 Bft) 95,74 %
09.11.2016 01:30 1,1 C 0,6 C -1,1 C 94 % 1 lf 1006,2 hPa 0,0 l/m 0 min 0 min 0 W/m 6,3 km/h (2 Bft) 97,87 %
09.11.2016 01:32 1,0 C 0,6 C -1,1 C 94 % 1 lf 1006,1 hPa 0,0 l/m 0 min 0 min 0 W/m 6,3 km/h (2 Bft) 91,30 %
09.11.2016 01:34 1,0 C 0,6 C -1,1 C 94 % 1 lf 1006,1 hPa 0,0 l/m 0 min 0 min 0 W/m 6,3 km/h (2 Bft) 97,87 %
09.11.2016 01:36 1,0 C 0,6 C -1,1 C 94 % 1 lf 1006,1 hPa 0,0 l/m 0 min 0 min 0 W/m 6,3 km/h (2 Bft) 97,87 %
09.11.2016 01:38 0,9 C 0,6 C -1,7 C 94 % 1 lf 1006,1 hPa 0,0 l/m 0 min 0 min 0 W/m 6,3 km/h (2 Bft) 97,87 %
09.11.2016 01:40 0,9 C 0,6 C -1,7 C 94 % 1 lf 1006,0 hPa 0,0 l/m 0 min 0 min 0 W/m 4,2 km/h (1 Bft) 97,87 %
09.11.2016 01:42 0,9 C 0,6 C -1,7 C 94 % 1 lf 1006,1 hPa 0,0 l/m 0 min 0 min 0 W/m 6,3 km/h (2 Bft) 93,48 %
09.11.2016 01:44 0,9 C 0,6 C -1,7 C 94 % 1 lf 1006,1 hPa 0,0 l/m 0 min 0 min 0 W/m 6,3 km/h (2 Bft) 91,49 %
09.11.2016 01:46 0,8 C 0,6 C -1,7 C 94 % 1 lf 1006,1 hPa 0,0 l/m 0 min 0 min 0 W/m 6,3 km/h (2 Bft) 95,74 %
09.11.2016 01:48 0,8 C 0,6 C -1,7 C 94 % 1 lf 1006,1 hPa 0,0 l/m 0 min 0 min 0 W/m 4,2 km/h (1 Bft) 93,62 %
09.11.2016 01:50 0,8 C 0,0 C -1,7 C 94 % 1 lf 1006,1 hPa 0,0 l/m 0 min 0 min 0 W/m 6,3 km/h (2 Bft) 97,87 %
09.11.2016 01:52 0,8 C 0,0 C -1,7 C 94 % 1 lf 1006,1 hPa 0,0 l/m 0 min 0 min 0 W/m 4,2 km/h (1 Bft) 97,87 %
09.11.2016 01:54 0,8 C 0,0 C -1,7 C 94 % 1 lf 1006,1 hPa 0,0 l/m 0 min 0 min 0 W/m 4,2 km/h (1 Bft) 95,65 %
09.11.2016 01:56 0,7 C 0,0 C -2,2 C 94 % 1 lf 1006,1 hPa 0,0 l/m 0 min 0 min 0 W/m 2,1 km/h (1 Bft) 95,74 %
09.11.2016 01:58 0,7 C 0,0 C -2,2 C 94 % 2 lf 1006,1 hPa 0,0 l/m 0 min 0 min 0 W/m 4,2 km/h (1 Bft) 95,74 %
09.11.2016 02:00 0,7 C -0,6 C -2,2 C 94 % 2 lf 1006,0 hPa 0,0 l/m 0 min 0 min 0 W/m 4,2 km/h (1 Bft) 89,36 %
09.11.2016 02:02 0,7 C -0,6 C -2,2 C 94 % 2 lf 1006,1 hPa 0,0 l/m 0 min 0 min 0 W/m 4,2 km/h (1 Bft) 93,62 %
09.11.2016 02:04 0,6 C 0,0 C -2,2 C 94 % 2 lf 1006,0 hPa 0,0 l/m 0 min 0 min 0 W/m 4,2 km/h (1 Bft) 95,74 %
09.11.2016 02:06 0,6 C 0,0 C -2,2 C 94 % 2 lf 1006,0 hPa 0,0 l/m 0 min 0 min 0 W/m 6,3 km/h (2 Bft) 95,65 %
09.11.2016 02:08 0,5 C 0,0 C -2,2 C 94 % 2 lf 1006,0 hPa 0,0 l/m 0 min 0 min 0 W/m 4,2 km/h (1 Bft) 95,74 %
09.11.2016 02:10 0,5 C 0,0 C -2,2 C 94 % 2 lf 1006,0 hPa 0,0 l/m 0 min 0 min 0 W/m 4,2 km/h (1 Bft) 93,62 %
09.11.2016 02:12 0,5 C 0,0 C -2,2 C 94 % 2 lf 1006,0 hPa 0,0 l/m 0 min 0 min 0 W/m 4,2 km/h (1 Bft) 93,62 %
09.11.2016 02:14 0,5 C 0,0 C -2,2 C 94 % 2 lf 1006,0 hPa 0,0 l/m 0 min 0 min 0 W/m 6,3 km/h (2 Bft) 95,74 %
09.11.2016 02:16 0,5 C 0,0 C -2,2 C 94 % 2 lf 1006,0 hPa 0,0 l/m 0 min 0 min 0 W/m 4,2 km/h (1 Bft) 89,36 %
09.11.2016 02:18 0,4 C 0,0 C -2,2 C 94 % 2 lf 1005,9 hPa 0,0 l/m 0 min 0 min 0 W/m 6,3 km/h (2 Bft) 95,65 %
09.11.2016 02:20 0,4 C 0,0 C -2,2 C 94 % 2 lf 1005,9 hPa 0,0 l/m 0 min 0 min 0 W/m 4,2 km/h (1 Bft) 95,74 %
09.11.2016 02:22 0,4 C 0,0 C -2,2 C 93 % 2 lf 1005,9 hPa 0,0 l/m 0 min 0 min 0 W/m 2,1 km/h (1 Bft) 97,87 %
09.11.2016 02:24 0,4 C 0,0 C -2,2 C 93 % 2 lf 1005,8 hPa 0,0 l/m 0 min 0 min 0 W/m 4,2 km/h (1 Bft) 97,87 %
09.11.2016 02:26 0,3 C 0,0 C -1,7 C 93 % 3 lf 1005,8 hPa 0,0 l/m 0 min 0 min 0 W/m 4,2 km/h (1 Bft) 97,87 %
09.11.2016 02:28 0,3 C 0,0 C -1,7 C 93 % 3 lf 1005,8 hPa 0,0 l/m 0 min 0 min 0 W/m 4,2 km/h (1 Bft) 100,00 %
09.11.2016 02:30 0,3 C 0,0 C -1,7 C 93 % 3 lf 1005,8 hPa 0,0 l/m 0 min 0 min 0 W/m 4,2 km/h (1 Bft) 100,00 %
09.11.2016 02:32 0,2 C 0,0 C -1,7 C 93 % 3 lf 1005,7 hPa 0,0 l/m 0 min 0 min 0 W/m 4,2 km/h (1 Bft) 97,87 %
09.11.2016 02:34 0,2 C 0,0 C -1,7 C 93 % 3 lf 1005,7 hPa 0,0 l/m 0 min 0 min 0 W/m 6,3 km/h (2 Bft) 100,00 %
09.11.2016 02:36 0,2 C 0,0 C -1,7 C 93 % 3 lf 1005,7 hPa 0,0 l/m 0 min 0 min 0 W/m 4,2 km/h (1 Bft) 95,74 %
09.11.2016 02:38 0,2 C 0,0 C -1,7 C 93 % 3 lf 1005,7 hPa 0,0 l/m 0 min 0 min 0 W/m 4,2 km/h (1 Bft) 97,87 %
09.11.2016 02:40 0,2 C 0,0 C -1,7 C 94 % 3 lf 1005,6 hPa 0,0 l/m 0 min 0 min 0 W/m 6,3 km/h (2 Bft) 100,00 %
09.11.2016 02:42 0,2 C 0,0 C -1,7 C 94 % 3 lf 1005,6 hPa 0,0 l/m 0 min 0 min 0 W/m 4,2 km/h (1 Bft) 97,87 %
09.11.2016 02:44 0,2 C 0,0 C -1,7 C 94 % 3 lf 1005,6 hPa 0,0 l/m 0 min 0 min 0 W/m 6,3 km/h (2 Bft) 100,00 %
09.11.2016 02:46 0,2 C 0,0 C -1,7 C 94 % 3 lf 1005,5 hPa 0,0 l/m 0 min 0 min 0 W/m 4,2 km/h (1 Bft) 97,87 %
09.11.2016 02:48 0,2 C 0,0 C -1,7 C 94 % 3 lf 1005,4 hPa 0,0 l/m 0 min 0 min 0 W/m 6,3 km/h (2 Bft) 100,00 %
09.11.2016 02:50 0,2 C 0,0 C -1,7 C 94 % 3 lf 1005,5 hPa 0,0 l/m 0 min 0 min 0 W/m 6,3 km/h (2 Bft) 97,87 %
09.11.2016 02:52 0,2 C 0,0 C -1,7 C 94 % 3 lf 1005,4 hPa 0,0 l/m 0 min 0 min 0 W/m 4,2 km/h (1 Bft) 95,65 %
09.11.2016 02:54 0,2 C 0,0 C -1,7 C 94 % 3 lf 1005,4 hPa 0,0 l/m 0 min 0 min 0 W/m 6,3 km/h (2 Bft) 97,87 %
09.11.2016 02:56 0,2 C 0,0 C -1,1 C 94 % 3 lf 1005,4 hPa 0,0 l/m 0 min 0 min 0 W/m 4,2 km/h (1 Bft) 100,00 %
09.11.2016 02:58 0,2 C 0,6 C -1,1 C 94 % 3 lf 1005,2 hPa 0,0 l/m 0 min 0 min 0 W/m 6,3 km/h (2 Bft) 93,62 %
09.11.2016 03:00 0,2 C 0,6 C -1,1 C 94 % 3 lf 1005,2 hPa 0,0 l/m 0 min 0 min 0 W/m 4,2 km/h (1 Bft) 95,74 %
09.11.2016 03:02 0,2 C 0,6 C -1,1 C 94 % 2 lf 1005,2 hPa 0,0 l/m 0 min 2 min 0 W/m 6,3 km/h (2 Bft) 97,87 %
09.11.2016 03:04 0,2 C 0,6 C -1,1 C 94 % 2 lf 1005,2 hPa 0,0 l/m 0 min 0 min 0 W/m 4,2 km/h (1 Bft) 95,65 %
09.11.2016 03:06 0,2 C 0,6 C -1,1 C 94 % 2 lf 1005,2 hPa 0,0 l/m 0 min 0 min 0 W/m 6,3 km/h (2 Bft) 93,62 %
09.11.2016 03:08 0,2 C 0,6 C -0,6 C 94 % 2 lf 1005,2 hPa 0,0 l/m 0 min 0 min 0 W/m 6,3 km/h (2 Bft) 95,74 %
09.11.2016 03:10 0,2 C 0,6 C -0,6 C 94 % 2 lf 1005,2 hPa 0,0 l/m 0 min 0 min 0 W/m 6,3 km/h (2 Bft) 95,74 %
09.11.2016 03:12 0,2 C 0,6 C -0,6 C 94 % 2 lf 1005,2 hPa 0,0 l/m 0 min 0 min 0 W/m 6,3 km/h (2 Bft) 95,74 %
09.11.2016 03:14 0,2 C 0,6 C -0,6 C 94 % 2 lf 1005,1 hPa 0,0 l/m 0 min 0 min 0 W/m 6,3 km/h (2 Bft) 95,74 %
09.11.2016 03:16 0,2 C 0,6 C -0,6 C 94 % 2 lf 1005,1 hPa 0,0 l/m 0 min 0 min 0 W/m 6,3 km/h (2 Bft) 93,48 %
09.11.2016 03:18 0,2 C 0,6 C -0,6 C 94 % 2 lf 1005,1 hPa 0,0 l/m 0 min 2 min 0 W/m 6,3 km/h (2 Bft) 95,74 %
09.11.2016 03:20 0,2 C 0,6 C -0,6 C 94 % 3 lf 1005,1 hPa 0,0 l/m 0 min 2 min 0 W/m 6,3 km/h (2 Bft) 95,74 %
09.11.2016 03:22 0,3 C 0,6 C -0,6 C 94 % 2 lf 1005,1 hPa 0,0 l/m 0 min 2 min 0 W/m 6,3 km/h (2 Bft) 95,74 %
09.11.2016 03:24 0,3 C 0,6 C -0,6 C 94 % 2 lf 1005,1 hPa 0,0 l/m 0 min 2 min 0 W/m 4,2 km/h (1 Bft) 93,62 %
09.11.2016 03:26 0,3 C 0,6 C -0,6 C 94 % 2 lf 1005,0 hPa 0,0 l/m 0 min 2 min 0 W/m 6,3 km/h (2 Bft) 95,74 %
09.11.2016 03:28 0,3 C 0,6 C -0,6 C 94 % 3 lf 1005,0 hPa 0,0 l/m 0 min 2 min 0 W/m 6,3 km/h (2 Bft) 93,48 %
09.11.2016 03:30 0,3 C 0,6 C -0,6 C 94 % 3 lf 1005,0 hPa 0,0 l/m 0 min 2 min 0 W/m 6,3 km/h (2 Bft) 93,62 %
09.11.2016 03:32 0,3 C 0,6 C -0,6 C 94 % 3 lf 1005,0 hPa 0,0 l/m 0 min 0 min 0 W/m 6,3 km/h (2 Bft) 91,49 %
09.11.2016 03:34 0,3 C 0,6 C -0,6 C 94 % 3 lf 1004,9 hPa 0,0 l/m 0 min 2 min 0 W/m 6,3 km/h (2 Bft) 93,62 %
09.11.2016 03:36 0,4 C 0,6 C -0,6 C 94 % 3 lf 1004,9 hPa 0,0 l/m 0 min 2 min 0 W/m 8,4 km/h (2 Bft) 95,74 %
09.11.2016 03:38 0,4 C 0,6 C -0,6 C 94 % 4 lf 1004,8 hPa 0,0 l/m 0 min 0 min 0 W/m 6,3 km/h (2 Bft) 95,74 %
09.11.2016 03:40 0,4 C 0,6 C -0,6 C 95 % 4 lf 1004,8 hPa 0,0 l/m 0 min 2 min 0 W/m 4,2 km/h (1 Bft) 93,48 %
09.11.2016 03:42 0,4 C 0,6 C -0,6 C 95 % 4 lf 1004,7 hPa 0,0 l/m 0 min 2 min 0 W/m 8,4 km/h (2 Bft) 89,36 %
09.11.2016 03:44 0,4 C 0,6 C -0,6 C 95 % 4 lf 1004,7 hPa 0,0 l/m 0 min 2 min 0 W/m 8,4 km/h (2 Bft) 93,62 %
09.11.2016 03:46 0,5 C 0,6 C -0,6 C 95 % 4 lf 1004,7 hPa 0,0 l/m 0 min 2 min 0 W/m 8,4 km/h (2 Bft) 91,49 %
09.11.2016 03:48 0,5 C 0,6 C -0,6 C 95 % 4 lf 1004,7 hPa 0,0 l/m 0 min 2 min 0 W/m 8,4 km/h (2 Bft) 91,49 %
09.11.2016 03:50 0,5 C 0,6 C -0,6 C 95 % 4 lf 1004,7 hPa 0,0 l/m 0 min 2 min 0 W/m 6,3 km/h (2 Bft) 95,65 %
09.11.2016 03:52 0,5 C 0,6 C -0,6 C 95 % 5 lf 1004,6 hPa 0,0 l/m 0 min 2 min 0 W/m 10,5 km/h (2 Bft) 95,74 %
09.11.2016 03:54 0,5 C 0,6 C -0,6 C 95 % 7 lf 1004,6 hPa 0,0 l/m 0 min 2 min 0 W/m 8,4 km/h (2 Bft) 97,87 %
09.11.2016 03:56 0,5 C 0,6 C -0,6 C 95 % 8 lf 1004,7 hPa 0,0 l/m 0 min 2 min 0 W/m 8,4 km/h (2 Bft) 100,00 %
09.11.2016 03:58 0,5 C 0,6 C -0,6 C 95 % 9 lf 1004,6 hPa 0,0 l/m 0 min 2 min 0 W/m 6,3 km/h (2 Bft) 93,62 %
09.11.2016 04:00 0,5 C 0,6 C -0,6 C 95 % 9 lf 1004,6 hPa 0,0 l/m 0 min 2 min 0 W/m 6,3 km/h (2 Bft) 97,87 %
09.11.2016 04:05 0,5 C 0,6 C -1,1 C 95 % 9 lf 1004,5 hPa 0,0 l/m 0 min 2 min 0 W/m 8,4 km/h (2 Bft) 97,78 %
09.11.2016 04:06 0,6 C 0,6 C -1,1 C 95 % 9 lf 1004,5 hPa 0,0 l/m 0 min 1 min 0 W/m 10,5 km/h (2 Bft) 100,00 %
09.11.2016 04:08 0,6 C 0,6 C -1,1 C 95 % 9 lf 1004,4 hPa 0,0 l/m 0 min 2 min 0 W/m 6,3 km/h (2 Bft) 97,87 %
09.11.2016 04:10 0,6 C 0,6 C -1,1 C 95 % 9 lf 1004,4 hPa 0,0 l/m 0 min 2 min 0 W/m 8,4 km/h (2 Bft) 100,00 %
09.11.2016 04:12 0,6 C 0,6 C -1,1 C 95 % 12 lf 1004,3 hPa 0,0 l/m 0 min 0 min 0 W/m 10,5 km/h (2 Bft) 93,62 %
09.11.2016 04:14 0,6 C 0,6 C -1,1 C 95 % 12 lf 1004,3 hPa 0,0 l/m 0 min 0 min 0 W/m 8,4 km/h (2 Bft) 91,30 %
09.11.2016 04:16 0,6 C 0,6 C -1,1 C 95 % 12 lf 1004,3 hPa 0,0 l/m 0 min 0 min 0 W/m 8,4 km/h (2 Bft) 97,87 %
09.11.2016 04:18 0,6 C 0,6 C -1,1 C 95 % 12 lf 1004,3 hPa 0,0 l/m 0 min 0 min 0 W/m 8,4 km/h (2 Bft) 97,87 %
09.11.2016 04:20 0,6 C 0,6 C -1,1 C 95 % 12 lf 1004,2 hPa 0,0 l/m 0 min 0 min 0 W/m 10,5 km/h (2 Bft) 97,87 %
09.11.2016 04:22 0,6 C 0,6 C -1,1 C 95 % 12 lf 1004,2 hPa 0,0 l/m 0 min 0 min 0 W/m 8,4 km/h (2 Bft) 97,87 %
09.11.2016 04:24 0,6 C 0,6 C -0,6 C 95 % 12 lf 1004,2 hPa 0,0 l/m 0 min 0 min 0 W/m 8,4 km/h (2 Bft) 100,00 %
09.11.2016 04:26 0,6 C 0,6 C -0,6 C 95 % 12 lf 1004,2 hPa 0,0 l/m 0 min 0 min 0 W/m 6,3 km/h (2 Bft) 100,00 %
09.11.2016 04:28 0,6 C 0,6 C -0,6 C 95 % 12 lf 1004,2 hPa 0,0 l/m 0 min 0 min 0 W/m 2,1 km/h (1 Bft) 95,74 %
09.11.2016 04:30 0,6 C 0,6 C -0,6 C 95 % 12 lf 1004,1 hPa 0,0 l/m 0 min 0 min 0 W/m 8,4 km/h (2 Bft) 97,87 %
09.11.2016 04:32 0,6 C 0,6 C -0,6 C 95 % 11 lf 1004,1 hPa 0,0 l/m 0 min 0 min 0 W/m 6,3 km/h (2 Bft) 100,00 %
09.11.2016 04:34 0,6 C 0,6 C -0,6 C 95 % 11 lf 1004,2 hPa 0,0 l/m 0 min 2 min 0 W/m 6,3 km/h (2 Bft) 100,00 %
09.11.2016 04:36 0,6 C 0,6 C -0,6 C 95 % 11 lf 1004,2 hPa 0,0 l/m 0 min 0 min 0 W/m 6,3 km/h (2 Bft) 100,00 %
09.11.2016 04:38 0,6 C 0,6 C -0,6 C 95 % 11 lf 1004,1 hPa 0,0 l/m 0 min 2 min 0 W/m 6,3 km/h (2 Bft) 97,83 %
09.11.2016 04:40 0,7 C 0,6 C -0,6 C 95 % 11 lf 1004,0 hPa 0,0 l/m 0 min 2 min 0 W/m 8,4 km/h (2 Bft) 100,00 %
09.11.2016 04:42 0,7 C 0,6 C -0,6 C 95 % 11 lf 1004,1 hPa 0,0 l/m 0 min 2 min 0 W/m 6,3 km/h (2 Bft) 97,87 %
09.11.2016 04:44 0,7 C 0,6 C -0,6 C 95 % 11 lf 1004,0 hPa 0,0 l/m 0 min 0 min 0 W/m 10,5 km/h (2 Bft) 95,74 %
09.11.2016 04:46 0,7 C 0,6 C -0,6 C 95 % 11 lf 1004,0 hPa 0,0 l/m 0 min 2 min 0 W/m 10,5 km/h (2 Bft) 95,74 %
09.11.2016 04:48 0,7 C 0,6 C -0,6 C 95 % 11 lf 1004,0 hPa 0,0 l/m 0 min 0 min 0 W/m 6,3 km/h (2 Bft) 100,00 %
09.11.2016 04:50 0,7 C 0,6 C -0,6 C 95 % 11 lf 1004,1 hPa 0,0 l/m 0 min 0 min 0 W/m 8,4 km/h (2 Bft) 97,87 %
09.11.2016 04:52 0,7 C 0,6 C -0,6 C 95 % 11 lf 1004,0 hPa 0,0 l/m 0 min 0 min 0 W/m 8,4 km/h (2 Bft) 100,00 %
09.11.2016 04:54 0,7 C 0,6 C -0,6 C 95 % 11 lf 1004,0 hPa 0,0 l/m 0 min 0 min 0 W/m 12,6 km/h (3 Bft) 100,00 %
09.11.2016 04:56 0,7 C 0,6 C -0,6 C 95 % 11 lf 1004,0 hPa 0,0 l/m 0 min 0 min 0 W/m 10,5 km/h (2 Bft) 97,87 %
09.11.2016 04:58 0,7 C 1,1 C -0,6 C 95 % 10 lf 1004,0 hPa 0,0 l/m 0 min 0 min 0 W/m 8,4 km/h (2 Bft) 100,00 %
09.11.2016 05:00 0,7 C 1,1 C -0,6 C 95 % 10 lf 1004,0 hPa 0,0 l/m 0 min 0 min 0 W/m 8,4 km/h (2 Bft) 100,00 %
09.11.2016 05:02 0,8 C 1,1 C -0,6 C 95 % 10 lf 1003,9 hPa 0,0 l/m 0 min 0 min 0 W/m 6,3 km/h (2 Bft) 95,65 %
09.11.2016 05:04 0,8 C 1,1 C -0,6 C 95 % 10 lf 1003,9 hPa 0,0 l/m 0 min 0 min 0 W/m 8,4 km/h (2 Bft) 100,00 %
09.11.2016 05:06 0,8 C 1,1 C 0,0 C 95 % 10 lf 1003,8 hPa 0,0 l/m 0 min 0 min 0 W/m 10,5 km/h (2 Bft) 100,00 %
09.11.2016 05:08 0,8 C 1,1 C 0,0 C 95 % 10 lf 1003,8 hPa 0,0 l/m 0 min 0 min 0 W/m 8,4 km/h (2 Bft) 97,87 %
09.11.2016 05:10 0,8 C 1,1 C 0,0 C 95 % 10 lf 1003,8 hPa 0,0 l/m 0 min 0 min 0 W/m 8,4 km/h (2 Bft) 100,00 %
09.11.2016 05:12 0,8 C 1,1 C 0,0 C 95 % 10 lf 1003,8 hPa 0,0 l/m 0 min 0 min 0 W/m 8,4 km/h (2 Bft) 100,00 %
09.11.2016 05:14 0,8 C 1,1 C 0,0 C 95 % 9 lf 1003,7 hPa 0,0 l/m 0 min 0 min 0 W/m 10,5 km/h (2 Bft) 97,87 %
09.11.2016 05:16 0,8 C 1,1 C 0,0 C 95 % 9 lf 1003,6 hPa 0,0 l/m 0 min 0 min 0 W/m 10,5 km/h (2 Bft) 100,00 %
09.11.2016 05:18 0,8 C 1,1 C 0,0 C 95 % 9 lf 1003,6 hPa 0,0 l/m 0 min 0 min 0 W/m 14,6 km/h (3 Bft) 97,87 %
09.11.2016 05:20 0,8 C 1,1 C 0,0 C 95 % 9 lf 1003,6 hPa 0,0 l/m 0 min 0 min 0 W/m 10,5 km/h (2 Bft) 97,87 %
09.11.2016 05:22 0,9 C 1,1 C 0,0 C 95 % 9 lf 1003,6 hPa 0,0 l/m 0 min 0 min 0 W/m 10,5 km/h (2 Bft) 100,00 %
09.11.2016 05:24 0,9 C 1,1 C 0,0 C 95 % 8 lf 1003,6 hPa 0,0 l/m 0 min 0 min 0 W/m 8,4 km/h (2 Bft) 95,65 %
09.11.2016 05:26 0,9 C 1,1 C 0,0 C 95 % 8 lf 1003,5 hPa 0,0 l/m 0 min 0 min 0 W/m 10,5 km/h (2 Bft) 95,74 %
09.11.2016 05:28 0,9 C 1,1 C 0,0 C 95 % 8 lf 1003,5 hPa 0,0 l/m 0 min 0 min 0 W/m 10,5 km/h (2 Bft) 95,74 %
09.11.2016 05:30 0,9 C 1,1 C 0,0 C 96 % 8 lf 1003,5 hPa 0,0 l/m 0 min 0 min 0 W/m 12,6 km/h (3 Bft) 95,74 %
09.11.2016 05:32 0,9 C 1,1 C 0,0 C 96 % 8 lf 1003,5 hPa 0,0 l/m 0 min 0 min 0 W/m 10,5 km/h (2 Bft) 95,74 %
09.11.2016 05:34 0,9 C 1,1 C 0,0 C 96 % 8 lf 1003,5 hPa 0,0 l/m 0 min 0 min 0 W/m 10,5 km/h (2 Bft) 93,62 %
09.11.2016 05:36 1,0 C 1,1 C 0,0 C 96 % 7 lf 1003,4 hPa 0,0 l/m 0 min 0 min 0 W/m 12,6 km/h (3 Bft) 91,30 %
09.11.2016 05:38 1,0 C 1,1 C -0,6 C 96 % 7 lf 1003,4 hPa 0,0 l/m 0 min 0 min 0 W/m 10,5 km/h (2 Bft) 91,49 %
09.11.2016 05:40 1,0 C 1,1 C -0,6 C 96 % 7 lf 1003,3 hPa 0,0 l/m 0 min 0 min 0 W/m 8,4 km/h (2 Bft) 91,49 %
09.11.2016 05:42 1,0 C 1,1 C -0,6 C 96 % 7 lf 1003,3 hPa 0,0 l/m 0 min 0 min 0 W/m 8,4 km/h (2 Bft) 91,49 %
09.11.2016 05:44 1,0 C 1,1 C -0,6 C 96 % 7 lf 1003,3 hPa 0,0 l/m 0 min 0 min 0 W/m 8,4 km/h (2 Bft) 93,62 %
09.11.2016 05:46 1,0 C 1,1 C -0,6 C 96 % 7 lf 1003,3 hPa 0,0 l/m 0 min 0 min 0 W/m 6,3 km/h (2 Bft) 93,48 %
09.11.2016 05:48 1,1 C 1,1 C -0,6 C 96 % 7 lf 1003,3 hPa 0,0 l/m 0 min 0 min 0 W/m 10,5 km/h (2 Bft) 91,49 %
09.11.2016 05:50 1,1 C 1,1 C -0,6 C 96 % 7 lf 1003,2 hPa 0,0 l/m 0 min 0 min 0 W/m 10,5 km/h (2 Bft) 93,62 %
09.11.2016 05:52 1,1 C 1,1 C 0,0 C 96 % 7 lf 1003,3 hPa 0,0 l/m 0 min 0 min 0 W/m 8,4 km/h (2 Bft) 93,62 %
09.11.2016 05:54 1,1 C 1,1 C 0,0 C 96 % 7 lf 1003,2 hPa 0,0 l/m 0 min 0 min 0 W/m 10,5 km/h (2 Bft) 82,98 %
09.11.2016 05:56 1,1 C 1,1 C 0,0 C 96 % 7 lf 1003,2 hPa 0,0 l/m 0 min 0 min 0 W/m 10,5 km/h (2 Bft) 93,62 %
09.11.2016 05:58 1,1 C 1,1 C 0,0 C 96 % 7 lf 1003,1 hPa 0,0 l/m 0 min 0 min 0 W/m 8,4 km/h (2 Bft) 93,48 %
09.11.2016 06:00 1,1 C 1,1 C 0,0 C 96 % 7 lf 1003,1 hPa 0,0 l/m 0 min 0 min 0 W/m 12,6 km/h (3 Bft) 93,62 %
09.11.2016 06:02 1,1 C 1,1 C 0,0 C 96 % 6 lf 1003,1 hPa 0,0 l/m 0 min 0 min 0 W/m 10,5 km/h (2 Bft) 95,74 %
09.11.2016 06:06 1,1 C 1,7 C 0,0 C 96 % 6 lf 1003,1 hPa 0,0 l/m 0 min 0 min 0 W/m 10,5 km/h (2 Bft) 90,43 %
09.11.2016 06:08 1,2 C 1,7 C 0,0 C 96 % 6 lf 1003,2 hPa 0,0 l/m 0 min 0 min 0 W/m 6,3 km/h (2 Bft) 91,49 %
09.11.2016 06:10 1,2 C 1,7 C 0,6 C 96 % 6 lf 1003,1 hPa 0,0 l/m 0 min 0 min 0 W/m 8,4 km/h (2 Bft) 91,30 %
09.11.2016 06:12 1,2 C 1,7 C 0,6 C 96 % 5 lf 1003,1 hPa 0,0 l/m 0 min 0 min 0 W/m 18,8 km/h (3 Bft) 89,36 %
09.11.2016 06:14 1,2 C 1,7 C 0,6 C 96 % 5 lf 1003,1 hPa 0,0 l/m 0 min 0 min 0 W/m 12,6 km/h (3 Bft) 89,36 %
09.11.2016 06:16 1,2 C 1,7 C 0,6 C 96 % 5 lf 1003,1 hPa 0,0 l/m 0 min 0 min 0 W/m 10,5 km/h (2 Bft) 91,49 %
09.11.2016 06:18 1,3 C 1,7 C 0,6 C 96 % 4 lf 1003,0 hPa 0,0 l/m 0 min 0 min 0 W/m 8,4 km/h (2 Bft) 91,49 %
09.11.2016 06:20 1,3 C 1,7 C 0,6 C 96 % 4 lf 1003,0 hPa 0,0 l/m 0 min 0 min 0 W/m 10,5 km/h (2 Bft) 97,87 %
09.11.2016 06:22 1,3 C 1,7 C 0,6 C 96 % 4 lf 1003,0 hPa 0,2 l/m 0 min 0 min 0 W/m 10,5 km/h (2 Bft) 95,65 %
09.11.2016 06:24 1,3 C 1,7 C 0,6 C 96 % 4 lf 1003,0 hPa 0,0 l/m 0 min 0 min 0 W/m 10,5 km/h (2 Bft) 95,74 %
09.11.2016 06:26 1,3 C 1,7 C 0,6 C 96 % 4 lf 1003,0 hPa 0,0 l/m 0 min 0 min 0 W/m 8,4 km/h (2 Bft) 93,62 %
09.11.2016 06:28 1,4 C 1,7 C 0,6 C 96 % 4 lf 1003,0 hPa 0,0 l/m 0 min 0 min 0 W/m 12,6 km/h (3 Bft) 95,74 %
09.11.2016 06:30 1,4 C 1,7 C 0,6 C 96 % 4 lf 1003,0 hPa 0,0 l/m 0 min 0 min 0 W/m 10,5 km/h (2 Bft) 93,62 %
09.11.2016 06:32 1,4 C 1,7 C 0,6 C 96 % 3 lf 1003,0 hPa 0,0 l/m 0 min 0 min 0 W/m 12,6 km/h (3 Bft) 95,74 %
09.11.2016 06:34 1,4 C 1,7 C 0,6 C 96 % 3 lf 1003,0 hPa 0,0 l/m 0 min 0 min 0 W/m 10,5 km/h (2 Bft) 91,30 %
09.11.2016 06:36 1,4 C 1,7 C 0,6 C 96 % 3 lf 1003,0 hPa 0,0 l/m 0 min 0 min 0 W/m 10,5 km/h (2 Bft) 95,74 %
09.11.2016 06:38 1,4 C 1,7 C 0,6 C 96 % 3 lf 1002,9 hPa 0,0 l/m 0 min 0 min 0 W/m 8,4 km/h (2 Bft) 91,49 %
09.11.2016 06:40 1,5 C 1,7 C 0,6 C 96 % 3 lf 1002,9 hPa 0,0 l/m 0 min 0 min 0 W/m 10,5 km/h (2 Bft) 95,74 %
09.11.2016 06:42 1,5 C 1,7 C 0,6 C 96 % 3 lf 1002,9 hPa 0,0 l/m 0 min 0 min 0 W/m 10,5 km/h (2 Bft) 95,74 %
09.11.2016 06:44 1,5 C 1,7 C 0,6 C 96 % 3 lf 1002,9 hPa 0,0 l/m 0 min 0 min 0 W/m 10,5 km/h (2 Bft) 95,74 %
09.11.2016 06:46 1,5 C 1,7 C 0,6 C 96 % 2 lf 1002,8 hPa 0,0 l/m 0 min 0 min 0 W/m 10,5 km/h (2 Bft) 95,65 %
09.11.2016 06:48 1,5 C 1,7 C 0,6 C 96 % 2 lf 1002,8 hPa 0,0 l/m 0 min 0 min 0 W/m 12,6 km/h (3 Bft) 93,62 %
09.11.2016 06:50 1,6 C 1,7 C 0,6 C 96 % 2 lf 1002,8 hPa 0,0 l/m 0 min 0 min 0 W/m 10,5 km/h (2 Bft) 95,74 %
09.11.2016 06:52 1,6 C 1,7 C 0,6 C 96 % 2 lf 1002,8 hPa 0,0 l/m 0 min 0 min 0 W/m 8,4 km/h (2 Bft) 93,62 %
09.11.2016 06:54 1,6 C 1,7 C 0,6 C 96 % 2 lf 1002,8 hPa 0,0 l/m 0 min 0 min 0 W/m 8,4 km/h (2 Bft) 95,74 %
09.11.2016 06:56 1,6 C 1,7 C 0,6 C 96 % 2 lf 1002,8 hPa 0,0 l/m 0 min 0 min 0 W/m 12,6 km/h (3 Bft) 95,74 %
09.11.2016 06:58 1,6 C 1,7 C 0,6 C 96 % 1 lf 1002,9 hPa 0,0 l/m 0 min 0 min 0 W/m 10,5 km/h (2 Bft) 95,65 %
09.11.2016 07:00 1,6 C 1,7 C 0,6 C 96 % 1 lf 1002,9 hPa 0,0 l/m 0 min 0 min 0 W/m 10,5 km/h (2 Bft) 100,00 %
09.11.2016 07:02 1,6 C 1,7 C 0,6 C 96 % 1 lf 1002,8 hPa 0,0 l/m 0 min 0 min 0 W/m 8,4 km/h (2 Bft) 100,00 %
09.11.2016 07:04 1,6 C 1,7 C 0,6 C 96 % 1 lf 1002,7 hPa 0,0 l/m 0 min 0 min 0 W/m 10,5 km/h (2 Bft) 100,00 %
09.11.2016 07:06 1,6 C 1,7 C 0,6 C 96 % 1 lf 1002,7 hPa 0,0 l/m 0 min 0 min 0 W/m 12,6 km/h (3 Bft) 97,87 %
09.11.2016 07:08 1,7 C 1,7 C 0,6 C 96 % 1 lf 1002,7 hPa 0,0 l/m 0 min 0 min 0 W/m 10,5 km/h (2 Bft) 93,48 %
09.11.2016 07:10 1,7 C 1,7 C 0,6 C 96 % 1 lf 1002,7 hPa 0,0 l/m 0 min 0 min 0 W/m 8,4 km/h (2 Bft) 97,87 %
09.11.2016 07:12 1,7 C 2,2 C 0,6 C 97 % 1 lf 1002,7 hPa 0,0 l/m 0 min 0 min 0 W/m 8,4 km/h (2 Bft) 100,00 %
09.11.2016 07:14 1,7 C 1,7 C 0,6 C 97 % 1 lf 1002,7 hPa 0,0 l/m 0 min 0 min 0 W/m 12,6 km/h (3 Bft) 95,74 %
09.11.2016 07:16 1,7 C 2,2 C 0,6 C 97 % 0 lf 1002,7 hPa 0,0 l/m 0 min 0 min 0 W/m 8,4 km/h (2 Bft) 95,74 %
09.11.2016 07:18 1,7 C 2,2 C 0,6 C 97 % 0 lf 1002,6 hPa 0,0 l/m 0 min 0 min 0 W/m 8,4 km/h (2 Bft) 93,62 %
09.11.2016 07:20 1,7 C 2,2 C 0,6 C 97 % 0 lf 1002,6 hPa 0,2 l/m 0 min 0 min 0 W/m 12,6 km/h (3 Bft) 95,65 %
09.11.2016 07:22 1,7 C 2,2 C 0,6 C 97 % 0 lf 1002,6 hPa 0,0 l/m 0 min 0 min 0 W/m 10,5 km/h (2 Bft) 95,74 %
09.11.2016 07:24 1,7 C 2,2 C 0,6 C 97 % 0 lf 1002,6 hPa 0,0 l/m 0 min 2 min 0 W/m 10,5 km/h (2 Bft) 97,87 %
09.11.2016 07:26 1,7 C 2,2 C 0,6 C 97 % 0 lf 1002,6 hPa 0,0 l/m 0 min 2 min 0 W/m 14,6 km/h (3 Bft) 95,74 %
09.11.2016 07:28 1,8 C 2,2 C 0,6 C 97 % 0 lf 1002,6 hPa 0,0 l/m 0 min 0 min 0 W/m 8,4 km/h (2 Bft) 93,62 %
09.11.2016 07:30 1,8 C 2,2 C 0,6 C 97 % 0 lf 1002,6 hPa 0,0 l/m 0 min 0 min 0 W/m 8,4 km/h (2 Bft) 95,74 %
09.11.2016 07:32 1,8 C 2,2 C 0,6 C 97 % 0 lf 1002,6 hPa 0,0 l/m 0 min 0 min 0 W/m 14,6 km/h (3 Bft) 97,83 %
09.11.2016 07:34 1,8 C 2,2 C 0,6 C 96 % 0 lf 1002,6 hPa 0,0 l/m 0 min 0 min 0 W/m 10,5 km/h (2 Bft) 95,74 %
09.11.2016 07:36 1,8 C 2,2 C 0,6 C 97 % 1 lf 1002,6 hPa 0,0 l/m 0 min 0 min 0 W/m 8,4 km/h (2 Bft) 95,74 %
09.11.2016 07:38 1,8 C 2,2 C 0,6 C 97 % 1 lf 1002,6 hPa 0,0 l/m 0 min 0 min 0 W/m 12,6 km/h (3 Bft) 97,87 %
09.11.2016 07:40 1,9 C 2,2 C 1,1 C 97 % 1 lf 1002,5 hPa 0,0 l/m 0 min 2 min 0 W/m 10,5 km/h (2 Bft) 97,87 %
09.11.2016 07:42 1,9 C 2,2 C 1,1 C 97 % 0 lf 1002,5 hPa 0,0 l/m 0 min 2 min 0 W/m 18,8 km/h (3 Bft) 95,74 %
09.11.2016 07:44 1,9 C 2,2 C 1,1 C 97 % 0 lf 1002,5 hPa 0,0 l/m 0 min 2 min 0 W/m 14,6 km/h (3 Bft) 97,83 %
09.11.2016 07:46 1,9 C 2,2 C 1,1 C 97 % 0 lf 1002,5 hPa 0,0 l/m 0 min 2 min 0 W/m 14,6 km/h (3 Bft) 97,87 %
09.11.2016 07:48 1,9 C 2,2 C 1,1 C 97 % 0 lf 1002,5 hPa 0,0 l/m 0 min 2 min 0 W/m 10,5 km/h (2 Bft) 97,87 %
09.11.2016 07:50 1,9 C 2,2 C 1,1 C 97 % 0 lf 1002,5 hPa 0,0 l/m 0 min 2 min 0 W/m 12,6 km/h (3 Bft) 97,87 %
09.11.2016 07:52 1,9 C 2,2 C 1,1 C 97 % 0 lf 1002,5 hPa 0,0 l/m 0 min 2 min 0 W/m 10,5 km/h (2 Bft) 97,87 %
09.11.2016 07:54 2,0 C 2,2 C 1,1 C 97 % 0 lf 1002,5 hPa 0,0 l/m 0 min 2 min 1 W/m 10,5 km/h (2 Bft) 100,00 %
09.11.2016 07:56 2,0 C 2,2 C 1,1 C 97 % 0 lf 1002,5 hPa 0,0 l/m 0 min 2 min 5 W/m 10,5 km/h (2 Bft) 100,00 %
09.11.2016 07:58 2,0 C 2,2 C 1,1 C 97 % 0 lf 1002,5 hPa 0,0 l/m 0 min 2 min 5 W/m 14,6 km/h (3 Bft) 100,00 %
09.11.2016 08:00 2,0 C 2,2 C 1,1 C 97 % 0 lf 1002,4 hPa 0,0 l/m 0 min 0 min 5 W/m 8,4 km/h (2 Bft) 97,87 %
09.11.2016 08:02 2,1 C 2,2 C 1,1 C 97 % 0 lf 1002,4 hPa 0,0 l/m 0 min 2 min 5 W/m 10,5 km/h (2 Bft) 100,00 %
09.11.2016 08:04 2,1 C 2,2 C 1,1 C 97 % 0 lf 1002,5 hPa 0,0 l/m 0 min 2 min 5 W/m 10,5 km/h (2 Bft) 100,00 %
09.11.2016 08:06 2,1 C 2,2 C 1,1 C 97 % 0 lf 1002,5 hPa 0,0 l/m 0 min 2 min 7 W/m 10,5 km/h (2 Bft) 97,83 %
09.11.2016 08:08 2,1 C 2,2 C 1,1 C 97 % 1 lf 1002,4 hPa 0,0 l/m 0 min 2 min 7 W/m 10,5 km/h (2 Bft) 93,62 %
09.11.2016 08:10 2,1 C 2,2 C 1,1 C 97 % 1 lf 1002,5 hPa 0,0 l/m 0 min 2 min 7 W/m 12,6 km/h (3 Bft) 95,74 %
09.11.2016 08:12 2,1 C 2,2 C 1,1 C 97 % 1 lf 1002,5 hPa 0,0 l/m 0 min 0 min 7 W/m 8,4 km/h (2 Bft) 93,62 %
09.11.2016 08:14 2,2 C 2,2 C 1,1 C 97 % 1 lf 1002,4 hPa 0,0 l/m 0 min 0 min 7 W/m 10,5 km/h (2 Bft) 95,74 %
09.11.2016 08:16 2,2 C 2,2 C 1,1 C 97 % 1 lf 1002,4 hPa 0,0 l/m 0 min 0 min 7 W/m 8,4 km/h (2 Bft) 97,87 %
09.11.2016 08:18 2,2 C 2,2 C 1,1 C 97 % 1 lf 1002,4 hPa 0,0 l/m 0 min 2 min 7 W/m 8,4 km/h (2 Bft) 97,83 %
09.11.2016 08:20 2,2 C 2,2 C 1,1 C 97 % 1 lf 1002,4 hPa 0,0 l/m 0 min 0 min 8 W/m 12,6 km/h (3 Bft) 97,87 %
09.11.2016 08:22 2,2 C 2,2 C 1,1 C 97 % 1 lf 1002,4 hPa 0,0 l/m 0 min 2 min 9 W/m 14,6 km/h (3 Bft) 97,87 %
09.11.2016 08:24 2,2 C 2,2 C 1,1 C 97 % 0 lf 1002,4 hPa 0,2 l/m 0 min 2 min 9 W/m 10,5 km/h (2 Bft) 97,87 %
09.11.2016 08:26 2,2 C 2,2 C 1,1 C 97 % 0 lf 1002,4 hPa 0,0 l/m 0 min 2 min 9 W/m 10,5 km/h (2 Bft) 93,62 %
09.11.2016 08:28 2,2 C 2,2 C 1,1 C 97 % 0 lf 1002,3 hPa 0,0 l/m 0 min 0 min 9 W/m 8,4 km/h (2 Bft) 97,87 %
09.11.2016 08:30 2,3 C 2,2 C 1,1 C 97 % 0 lf 1002,3 hPa 0,0 l/m 0 min 2 min 9 W/m 12,6 km/h (3 Bft) 93,48 %
09.11.2016 08:32 2,3 C 2,8 C 1,1 C 97 % 1 lf 1002,3 hPa 0,0 l/m 0 min 2 min 9 W/m 12,6 km/h (3 Bft) 95,74 %
09.11.2016 08:34 2,3 C 2,8 C 1,1 C 97 % 1 lf 1002,3 hPa 0,0 l/m 0 min 2 min 9 W/m 12,6 km/h (3 Bft) 93,62 %
09.11.2016 08:36 2,3 C 2,8 C 1,7 C 97 % 1 lf 1002,3 hPa 0,0 l/m 0 min 2 min 11 W/m 12,6 km/h (3 Bft) 93,62 %
09.11.2016 08:38 2,3 C 2,8 C 1,7 C 97 % 1 lf 1002,3 hPa 0,0 l/m 0 min 2 min 13 W/m 8,4 km/h (2 Bft) 97,87 %
09.11.2016 08:40 2,3 C 2,8 C 1,7 C 97 % 1 lf 1002,3 hPa 0,0 l/m 0 min 0 min 15 W/m 14,6 km/h (3 Bft) 95,74 %
09.11.2016 08:42 2,4 C 2,8 C 1,7 C 97 % 1 lf 1002,3 hPa 0,0 l/m 0 min 0 min 16 W/m 16,7 km/h (3 Bft) 97,83 %
09.11.2016 08:44 2,4 C 2,8 C 1,7 C 97 % 1 lf 1002,3 hPa 0,0 l/m 0 min 2 min 18 W/m 12,6 km/h (3 Bft) 95,74 %
09.11.2016 08:46 2,4 C 2,8 C 1,7 C 97 % 0 lf 1002,3 hPa 0,0 l/m 0 min 0 min 19 W/m 16,7 km/h (3 Bft) 97,87 %
09.11.2016 08:48 2,4 C 2,8 C 1,7 C 97 % 0 lf 1002,3 hPa 0,0 l/m 0 min 0 min 21 W/m 12,6 km/h (3 Bft) 93,62 %
09.11.2016 08:50 2,4 C 2,8 C 1,7 C 97 % 0 lf 1002,3 hPa 0,0 l/m 0 min 0 min 24 W/m 12,6 km/h (3 Bft) 97,87 %
09.11.2016 08:52 2,4 C 2,8 C 1,7 C 97 % 0 lf 1002,3 hPa 0,0 l/m 0 min 0 min 26 W/m 20,9 km/h (4 Bft) 100,00 %
09.11.2016 08:54 2,4 C 2,8 C 1,7 C 97 % 0 lf 1002,3 hPa 0,0 l/m 0 min 2 min 26 W/m 14,6 km/h (3 Bft) 100,00 %
09.11.2016 08:56 2,5 C 2,8 C 1,7 C 97 % 0 lf 1002,3 hPa 0,0 l/m 0 min 0 min 26 W/m 10,5 km/h (2 Bft) 97,87 %
09.11.2016 08:58 2,5 C 2,8 C 1,7 C 97 % 0 lf 1002,3 hPa 0,0 l/m 0 min 0 min 26 W/m 18,8 km/h (3 Bft) 97,87 %
09.11.2016 09:00 2,5 C 2,8 C 1,7 C 97 % 1 lf 1002,3 hPa 0,0 l/m 0 min 2 min 26 W/m 16,7 km/h (3 Bft) 100,00 %
09.11.2016 09:02 2,6 C 2,8 C 1,7 C 97 % 1 lf 1002,3 hPa 0,0 l/m 0 min 2 min 28 W/m 16,7 km/h (3 Bft) 95,74 %
09.11.2016 09:04 2,6 C 2,8 C 1,7 C 97 % 1 lf 1002,3 hPa 0,0 l/m 0 min 2 min 30 W/m 12,6 km/h (3 Bft) 93,62 %
09.11.2016 09:06 2,6 C 2,8 C 1,7 C 97 % 0 lf 1002,2 hPa 0,0 l/m 0 min 0 min 32 W/m 14,6 km/h (3 Bft) 100,00 %
09.11.2016 09:08 2,6 C 2,8 C 1,7 C 97 % 0 lf 1002,3 hPa 0,0 l/m 0 min 0 min 34 W/m 16,7 km/h (3 Bft) 97,87 %
09.11.2016 09:10 2,6 C 2,8 C 1,7 C 97 % 0 lf 1002,2 hPa 0,0 l/m 0 min 0 min 35 W/m 16,7 km/h (3 Bft) 93,62 %
09.11.2016 09:12 2,6 C 2,8 C 1,7 C 97 % 0 lf 1002,3 hPa 0,0 l/m 0 min 0 min 34 W/m 23,0 km/h (4 Bft) 95,74 %
09.11.2016 09:14 2,7 C 2,8 C 1,7 C 97 % 0 lf 1002,2 hPa 0,0 l/m 0 min 0 min 34 W/m 16,7 km/h (3 Bft) 95,74 %
09.11.2016 09:16 2,7 C 3,3 C 2,2 C 97 % 0 lf 1002,2 hPa 0,0 l/m 0 min 0 min 38 W/m 12,6 km/h (3 Bft) 89,13 %
09.11.2016 09:18 2,7 C 3,3 C 2,2 C 97 % 0 lf 1002,2 hPa 0,0 l/m 0 min 0 min 39 W/m 14,6 km/h (3 Bft) 93,62 %
09.11.2016 09:20 2,7 C 3,3 C 2,2 C 97 % 0 lf 1002,3 hPa 0,0 l/m 0 min 0 min 40 W/m 12,6 km/h (3 Bft) 95,74 %
09.11.2016 09:22 2,7 C 3,3 C 2,2 C 97 % 0 lf 1002,3 hPa 0,0 l/m 0 min 0 min 40 W/m 12,6 km/h (3 Bft) 95,74 %
09.11.2016 09:24 2,8 C 3,3 C 2,2 C 97 % 0 lf 1002,2 hPa 0,0 l/m 0 min 0 min 40 W/m 16,7 km/h (3 Bft) 95,74 %
09.11.2016 09:26 2,8 C 3,3 C 2,2 C 97 % 0 lf 1002,3 hPa 0,0 l/m 0 min 0 min 39 W/m 14,6 km/h (3 Bft) 95,74 %
09.11.2016 09:28 2,8 C 3,3 C 2,2 C 97 % 0 lf 1002,3 hPa 0,0 l/m 0 min 0 min 39 W/m 16,7 km/h (3 Bft) 89,13 %
09.11.2016 09:30 2,8 C 3,3 C 2,2 C 97 % 0 lf 1002,3 hPa 0,0 l/m 0 min 0 min 33 W/m 16,7 km/h (3 Bft) 95,74 %
09.11.2016 09:32 2,8 C 3,3 C 2,2 C 97 % 0 lf 1002,3 hPa 0,0 l/m 0 min 2 min 25 W/m 16,7 km/h (3 Bft) 95,74 %
09.11.2016 09:34 2,9 C 3,3 C 2,2 C 97 % 1 lf 1002,2 hPa 0,0 l/m 0 min 0 min 21 W/m 20,9 km/h (4 Bft) 93,62 %
09.11.2016 09:36 2,9 C 3,3 C 2,2 C 97 % 1 lf 1002,2 hPa 0,2 l/m 0 min 2 min 22 W/m 18,8 km/h (3 Bft) 95,74 %
09.11.2016 09:38 2,9 C 3,3 C 2,2 C 97 % 1 lf 1002,2 hPa 0,0 l/m 0 min 0 min 25 W/m 20,9 km/h (4 Bft) 97,87 %
09.11.2016 09:40 2,9 C 3,3 C 2,2 C 97 % 1 lf 1002,2 hPa 0,0 l/m 0 min 2 min 25 W/m 25,1 km/h (4 Bft) 97,83 %
09.11.2016 09:42 2,9 C 3,3 C 2,2 C 97 % 2 lf 1002,1 hPa 0,0 l/m 0 min 2 min 22 W/m 23,0 km/h (4 Bft) 97,87 %
09.11.2016 09:44 2,9 C 3,3 C 2,2 C 97 % 2 lf 1002,2 hPa 0,0 l/m 0 min 2 min 22 W/m 16,7 km/h (3 Bft) 95,74 %
09.11.2016 09:46 2,9 C 3,3 C 2,2 C 97 % 3 lf 1002,2 hPa 0,0 l/m 0 min 2 min 24 W/m 12,6 km/h (3 Bft) 91,49 %
09.11.2016 09:48 3,0 C 3,3 C 2,2 C 97 % 3 lf 1002,1 hPa 0,0 l/m 0 min 2 min 25 W/m 20,9 km/h (4 Bft) 97,87 %
09.11.2016 09:50 3,0 C 3,3 C 2,2 C 97 % 3 lf 1002,1 hPa 0,0 l/m 0 min 2 min 25 W/m 18,8 km/h (3 Bft) 97,87 %
09.11.2016 09:52 3,0 C 2,8 C 2,2 C 97 % 3 lf 1002,1 hPa 0,0 l/m 0 min 2 min 25 W/m 20,9 km/h (4 Bft) 91,30 %
09.11.2016 09:54 3,1 C 2,8 C 2,2 C 97 % 2 lf 1002,1 hPa 0,0 l/m 0 min 2 min 23 W/m 18,8 km/h (3 Bft) 93,62 %
09.11.2016 09:56 3,1 C 3,3 C 2,2 C 97 % 3 lf 1002,1 hPa 0,0 l/m 0 min 2 min 23 W/m 18,8 km/h (3 Bft) 93,62 %
09.11.2016 09:58 3,1 C 3,3 C 2,2 C 97 % 3 lf 1002,2 hPa 0,2 l/m 0 min 2 min 23 W/m 18,8 km/h (3 Bft) 95,74 %
09.11.2016 10:00 3,1 C 3,3 C 2,2 C 97 % 4 lf 1002,2 hPa 0,0 l/m 0 min 2 min 25 W/m 23,0 km/h (4 Bft) 95,74 %
09.11.2016 10:02 3,1 C 3,3 C 2,2 C 97 % 11 lf 1002,1 hPa 0,0 l/m 0 min 2 min 25 W/m 20,9 km/h (4 Bft) 97,87 %
09.11.2016 10:04 3,1 C 3,3 C 2,2 C 97 % 13 lf 1002,1 hPa 0,0 l/m 0 min 2 min 26 W/m 18,8 km/h (3 Bft) 97,83 %
09.11.2016 10:06 3,1 C 3,3 C 2,2 C 97 % 14 lf 1002,1 hPa 0,2 l/m 0 min 2 min 28 W/m 16,7 km/h (3 Bft) 97,87 %
09.11.2016 10:08 3,1 C 3,3 C 2,2 C 97 % 14 lf 1002,1 hPa 0,0 l/m 0 min 2 min 26 W/m 20,9 km/h (4 Bft) 97,87 %
09.11.2016 10:10 3,2 C 3,3 C 2,2 C 97 % 14 lf 1002,1 hPa 0,0 l/m 0 min 2 min 25 W/m 16,7 km/h (3 Bft) 95,74 %
09.11.2016 10:12 3,2 C 3,3 C 2,2 C 97 % 14 lf 1002,1 hPa 0,0 l/m 0 min 2 min 24 W/m 20,9 km/h (4 Bft) 97,87 %
09.11.2016 10:14 3,2 C 3,3 C 2,2 C 97 % 14 lf 1002,1 hPa 0,0 l/m 0 min 2 min 22 W/m 12,6 km/h (3 Bft) 95,74 %
09.11.2016 10:16 3,2 C 3,3 C 2,2 C 97 % 14 lf 1002,1 hPa 0,0 l/m 0 min 2 min 21 W/m 16,7 km/h (3 Bft) 95,65 %
09.11.2016 10:18 3,2 C 3,3 C 2,2 C 97 % 14 lf 1002,1 hPa 0,0 l/m 0 min 2 min 20 W/m 18,8 km/h (3 Bft) 93,62 %
09.11.2016 10:20 3,2 C 3,3 C 2,2 C 97 % 14 lf 1002,0 hPa 0,0 l/m 0 min 2 min 19 W/m 16,7 km/h (3 Bft) 97,87 %
09.11.2016 10:22 3,2 C 3,3 C 2,2 C 97 % 14 lf 1002,0 hPa 0,0 l/m 0 min 2 min 19 W/m 20,9 km/h (4 Bft) 93,62 %
09.11.2016 10:24 3,2 C 3,3 C 2,2 C 97 % 15 lf 1002,0 hPa 0,2 l/m 0 min 2 min 21 W/m 18,8 km/h (3 Bft) 93,62 %
09.11.2016 10:26 3,2 C 3,3 C 2,2 C 97 % 14 lf 1002,0 hPa 0,0 l/m 0 min 2 min 21 W/m 20,9 km/h (4 Bft) 91,30 %
09.11.2016 10:28 3,2 C 3,3 C 2,2 C 97 % 15 lf 1002,0 hPa 0,0 l/m 0 min 2 min 21 W/m 16,7 km/h (3 Bft) 95,74 %
09.11.2016 10:30 3,2 C 3,3 C 2,2 C 97 % 15 lf 1001,9 hPa 0,0 l/m 0 min 2 min 22 W/m 14,6 km/h (3 Bft) 95,74 %
09.11.2016 10:32 3,2 C 3,3 C 2,2 C 97 % 15 lf 1001,9 hPa 0,0 l/m 0 min 2 min 23 W/m 20,9 km/h (4 Bft) 97,87 %
09.11.2016 10:34 3,3 C 3,3 C 2,2 C 97 % 15 lf 1001,9 hPa 0,0 l/m 0 min 2 min 25 W/m 16,7 km/h (3 Bft) 97,87 %
09.11.2016 10:36 3,2 C 3,3 C 2,2 C 97 % 15 lf 1001,8 hPa 0,2 l/m 0 min 2 min 24 W/m 25,1 km/h (4 Bft) 97,87 %
09.11.2016 10:38 3,2 C 3,3 C 2,2 C 97 % 15 lf 1001,9 hPa 0,0 l/m 0 min 2 min 21 W/m 20,9 km/h (4 Bft) 95,74 %
09.11.2016 10:40 3,3 C 3,3 C 2,2 C 97 % 15 lf 1001,8 hPa 0,0 l/m 0 min 2 min 21 W/m 18,8 km/h (3 Bft) 97,83 %
09.11.2016 10:42 3,3 C 3,3 C 2,2 C 97 % 15 lf 1001,8 hPa 0,0 l/m 0 min 2 min 21 W/m 20,9 km/h (4 Bft) 89,36 %
09.11.2016 10:44 3,3 C 3,3 C 2,2 C 97 % 15 lf 1001,7 hPa 0,0 l/m 0 min 2 min 24 W/m 18,8 km/h (3 Bft) 93,62 %
09.11.2016 10:46 3,3 C 3,3 C 2,2 C 97 % 15 lf 1001,8 hPa 0,0 l/m 0 min 2 min 26 W/m 20,9 km/h (4 Bft) 93,62 %
09.11.2016 10:48 3,3 C 3,3 C 2,2 C 97 % 15 lf 1001,7 hPa 0,0 l/m 0 min 0 min 31 W/m 20,9 km/h (4 Bft) 93,62 %
09.11.2016 10:50 3,3 C 3,3 C 2,2 C 97 % 15 lf 1001,8 hPa 0,0 l/m 0 min 0 min 33 W/m 20,9 km/h (4 Bft) 93,48 %
09.11.2016 10:52 3,3 C 3,3 C 2,2 C 97 % 14 lf 1001,7 hPa 0,0 l/m 0 min 2 min 36 W/m 20,9 km/h (4 Bft) 93,62 %
09.11.2016 10:54 3,3 C 3,3 C 2,2 C 97 % 15 lf 1001,7 hPa 0,0 l/m 0 min 0 min 38 W/m 14,6 km/h (3 Bft) 95,74 %
09.11.2016 10:56 3,3 C 3,3 C 2,2 C 97 % 14 lf 1001,7 hPa 0,0 l/m 0 min 2 min 40 W/m 16,7 km/h (3 Bft) 91,49 %
09.11.2016 10:58 3,3 C 3,3 C 2,2 C 97 % 14 lf 1001,7 hPa 0,0 l/m 0 min 0 min 43 W/m 23,0 km/h (4 Bft) 93,62 %
09.11.2016 11:00 3,3 C 3,3 C 2,2 C 97 % 14 lf 1001,6 hPa 0,0 l/m 0 min 2 min 46 W/m 16,7 km/h (3 Bft) 93,62 %
09.11.2016 11:02 3,3 C 3,3 C 2,8 C 97 % 14 lf 1001,6 hPa 0,0 l/m 0 min 0 min 49 W/m 18,8 km/h (3 Bft) 91,30 %
09.11.2016 11:04 3,3 C 3,3 C 2,2 C 97 % 14 lf 1001,6 hPa 0,0 l/m 0 min 0 min 54 W/m 23,0 km/h (4 Bft) 95,74 %
09.11.2016 11:06 3,3 C 3,9 C 2,8 C 97 % 13 lf 1001,6 hPa 0,0 l/m 0 min 0 min 59 W/m 20,9 km/h (4 Bft) 95,74 %
09.11.2016 11:08 3,4 C 3,9 C 2,8 C 97 % 13 lf 1001,6 hPa 0,0 l/m 0 min 0 min 63 W/m 27,2 km/h (4 Bft) 95,74 %
09.11.2016 11:10 3,4 C 3,9 C 2,8 C 97 % 13 lf 1001,4 hPa 0,0 l/m 0 min 0 min 65 W/m 16,7 km/h (3 Bft) 93,62 %
09.11.2016 11:12 3,4 C 3,9 C 2,8 C 97 % 12 lf 1001,4 hPa 0,0 l/m 0 min 0 min 66 W/m 16,7 km/h (3 Bft) 93,62 %
09.11.2016 11:14 3,4 C 3,9 C 2,8 C 97 % 12 lf 1001,4 hPa 0,0 l/m 0 min 0 min 62 W/m 18,8 km/h (3 Bft) 93,48 %
09.11.2016 11:16 3,4 C 3,9 C 2,8 C 97 % 11 lf 1001,4 hPa 0,0 l/m 0 min 0 min 57 W/m 23,0 km/h (4 Bft) 95,74 %
09.11.2016 11:18 3,4 C 3,9 C 2,8 C 97 % 10 lf 1001,4 hPa 0,0 l/m 0 min 0 min 53 W/m 20,9 km/h (4 Bft) 93,62 %
09.11.2016 11:20 3,5 C 3,9 C 2,8 C 97 % 9 lf 1001,4 hPa 0,0 l/m 0 min 0 min 49 W/m 25,1 km/h (4 Bft) 95,74 %
09.11.2016 11:22 3,5 C 3,9 C 2,8 C 97 % 8 lf 1001,3 hPa 0,0 l/m 0 min 0 min 45 W/m 25,1 km/h (4 Bft) 95,74 %
09.11.2016 11:24 3,5 C 3,9 C 2,8 C 97 % 7 lf 1001,4 hPa 0,0 l/m 0 min 0 min 43 W/m 23,0 km/h (4 Bft) 93,62 %
09.11.2016 11:26 3,5 C 3,9 C 2,8 C 97 % 6 lf 1001,3 hPa 0,0 l/m 0 min 0 min 40 W/m 20,9 km/h (4 Bft) 97,83 %
09.11.2016 11:28 3,5 C 3,9 C 2,8 C 97 % 5 lf 1001,3 hPa 0,0 l/m 0 min 0 min 40 W/m 14,6 km/h (3 Bft) 97,87 %
09.11.2016 11:30 3,5 C 3,9 C 2,8 C 97 % 4 lf 1001,2 hPa 0,0 l/m 0 min 0 min 41 W/m 25,1 km/h (4 Bft) 100,00 %
09.11.2016 11:32 3,5 C 3,9 C 2,8 C 97 % 4 lf 1001,2 hPa 0,0 l/m 0 min 0 min 39 W/m 25,1 km/h (4 Bft) 100,00 %
09.11.2016 11:34 3,5 C 3,9 C 2,8 C 97 % 3 lf 1001,2 hPa 0,0 l/m 0 min 0 min 35 W/m 27,2 km/h (4 Bft) 97,87 %
09.11.2016 11:36 3,6 C 3,9 C 2,8 C 97 % 3 lf 1001,1 hPa 0,0 l/m 0 min 0 min 37 W/m 14,6 km/h (3 Bft) 100,00 %
09.11.2016 11:38 3,6 C 3,9 C 2,8 C 97 % 2 lf 1001,2 hPa 0,0 l/m 0 min 0 min 43 W/m 16,7 km/h (3 Bft) 97,87 %
09.11.2016 11:40 3,6 C 3,9 C 2,8 C 97 % 2 lf 1001,1 hPa 0,0 l/m 0 min 0 min 52 W/m 23,0 km/h (4 Bft) 97,87 %
09.11.2016 11:42 3,6 C 3,9 C 2,8 C 97 % 1 lf 1001,1 hPa 0,0 l/m 0 min 0 min 60 W/m 16,7 km/h (3 Bft) 100,00 %
09.11.2016 11:44 3,6 C 3,9 C 2,8 C 97 % 1 lf 1001,1 hPa 0,0 l/m 0 min 0 min 65 W/m 20,9 km/h (4 Bft) 100,00 %
09.11.2016 11:46 3,6 C 3,9 C 2,8 C 97 % 0 lf 1001,1 hPa 0,0 l/m 0 min 0 min 69 W/m 18,8 km/h (3 Bft) 100,00 %
09.11.2016 11:48 3,6 C 3,9 C 2,8 C 97 % 0 lf 1001,0 hPa 0,0 l/m 0 min 0 min 73 W/m 27,2 km/h (4 Bft) 100,00 %
09.11.2016 11:50 3,6 C 3,9 C 2,8 C 97 % 0 lf 1001,1 hPa 0,0 l/m 0 min 0 min 79 W/m 20,9 km/h (4 Bft) 97,67 %
09.11.2016 11:52 3,6 C 3,9 C 3,3 C 97 % 0 lf 1001,0 hPa 0,0 l/m 0 min 0 min 83 W/m 18,8 km/h (3 Bft) 97,87 %
09.11.2016 11:54 3,7 C 4,4 C 3,3 C 97 % 0 lf 1001,0 hPa 0,0 l/m 0 min 0 min 86 W/m 18,8 km/h (3 Bft) 100,00 %
09.11.2016 11:56 3,7 C 4,4 C 3,3 C 97 % 0 lf 1000,9 hPa 0,0 l/m 0 min 0 min 88 W/m 20,9 km/h (4 Bft) 100,00 %
09.11.2016 11:58 3,7 C 4,4 C 3,3 C 97 % 0 lf 1000,9 hPa 0,0 l/m 0 min 2 min 91 W/m 27,2 km/h (4 Bft) 95,74 %
09.11.2016 12:00 3,7 C 4,4 C 3,3 C 97 % 0 lf 1000,9 hPa 0,0 l/m 0 min 2 min 91 W/m 16,7 km/h (3 Bft) 100,00 %
09.11.2016 12:02 3,7 C 4,4 C 3,3 C 97 % 0 lf 1000,9 hPa 0,0 l/m 0 min 2 min 91 W/m 16,7 km/h (3 Bft) 100,00 %
09.11.2016 12:06 3,8 C 4,4 C 3,3 C 97 % 3 lf 1000,9 hPa 0,0 l/m 0 min 2 min 90 W/m 31,4 km/h (5 Bft) 96,84 %
09.11.2016 12:08 3,8 C 4,4 C 3,3 C 97 % 8 lf 1000,8 hPa 0,0 l/m 0 min 2 min 87 W/m 27,2 km/h (4 Bft) 97,87 %
09.11.2016 12:10 3,8 C 3,9 C 3,3 C 97 % 9 lf 1000,8 hPa 0,0 l/m 0 min 2 min 84 W/m 20,9 km/h (4 Bft) 97,87 %
09.11.2016 12:12 3,8 C 3,9 C 3,3 C 97 % 11 lf 1000,7 hPa 0,2 l/m 0 min 2 min 80 W/m 27,2 km/h (4 Bft) 97,83 %
09.11.2016 12:14 3,8 C 4,4 C 3,3 C 97 % 14 lf 1000,7 hPa 0,0 l/m 0 min 2 min 80 W/m 23,0 km/h (4 Bft) 97,87 %
09.11.2016 12:16 3,9 C 4,4 C 3,3 C 97 % 14 lf 1000,7 hPa 0,0 l/m 0 min 2 min 83 W/m 23,0 km/h (4 Bft) 95,74 %
09.11.2016 12:18 3,9 C 4,4 C 3,3 C 97 % 14 lf 1000,7 hPa 0,0 l/m 0 min 2 min 87 W/m 23,0 km/h (4 Bft) 95,74 %
09.11.2016 12:20 3,9 C 4,4 C 3,3 C 97 % 14 lf 1000,7 hPa 0,0 l/m 0 min 2 min 84 W/m 20,9 km/h (4 Bft) 97,87 %
09.11.2016 12:22 3,9 C 3,9 C 3,3 C 97 % 15 lf 1000,6 hPa 0,0 l/m 0 min 2 min 76 W/m 20,9 km/h (4 Bft) 93,62 %
09.11.2016 12:24 3,9 C 3,9 C 3,3 C 97 % 15 lf 1000,5 hPa 0,0 l/m 0 min 2 min 68 W/m 23,0 km/h (4 Bft) 97,83 %
09.11.2016 12:26 3,9 C 3,9 C 3,3 C 97 % 14 lf 1000,5 hPa 0,0 l/m 0 min 2 min 62 W/m 23,0 km/h (4 Bft) 95,74 %
09.11.2016 12:28 4,0 C 3,9 C 3,3 C 97 % 15 lf 1000,5 hPa 0,2 l/m 0 min 2 min 62 W/m 23,0 km/h (4 Bft) 95,74 %
09.11.2016 12:30 4,0 C 3,9 C 3,3 C 97 % 15 lf 1000,5 hPa 0,0 l/m 0 min 2 min 73 W/m 23,0 km/h (4 Bft) 95,74 %
09.11.2016 12:32 4,0 C 4,4 C 3,3 C 97 % 15 lf 1000,5 hPa 0,0 l/m 0 min 2 min 80 W/m 18,8 km/h (3 Bft) 97,87 %
09.11.2016 12:34 4,0 C 3,9 C 3,3 C 97 % 15 lf 1000,5 hPa 0,0 l/m 0 min 2 min 85 W/m 23,0 km/h (4 Bft) 97,87 %
09.11.2016 12:36 4,0 C 4,4 C 3,3 C 97 % 15 lf 1000,4 hPa 0,0 l/m 0 min 2 min 88 W/m 18,8 km/h (3 Bft) 93,48 %
09.11.2016 12:38 4,1 C 4,4 C 3,3 C 97 % 15 lf 1000,4 hPa 0,0 l/m 0 min 2 min 90 W/m 16,7 km/h (3 Bft) 97,87 %
09.11.2016 12:40 4,1 C 4,4 C 3,3 C 97 % 15 lf 1000,4 hPa 0,0 l/m 0 min 2 min 92 W/m 29,3 km/h (5 Bft) 95,74 %
09.11.2016 12:42 4,1 C 4,4 C 3,3 C 97 % 15 lf 1000,3 hPa 0,0 l/m 0 min 2 min 94 W/m 20,9 km/h (4 Bft) 95,74 %
09.11.2016 12:44 4,1 C 4,4 C 3,9 C 97 % 14 lf 1000,3 hPa 0,0 l/m 0 min 2 min 95 W/m 25,1 km/h (4 Bft) 97,87 %
09.11.2016 12:46 4,1 C 4,4 C 3,9 C 97 % 15 lf 1000,3 hPa 0,0 l/m 0 min 2 min 97 W/m 27,2 km/h (4 Bft) 95,74 %
09.11.2016 12:48 4,1 C 4,4 C 3,3 C 97 % 14 lf 1000,2 hPa 0,0 l/m 0 min 2 min 98 W/m 18,8 km/h (3 Bft) 95,65 %
09.11.2016 12:50 4,2 C 4,4 C 3,3 C 97 % 14 lf 1000,2 hPa 0,0 l/m 0 min 2 min 98 W/m 23,0 km/h (4 Bft) 91,49 %
09.11.2016 12:52 4,2 C 4,4 C 3,9 C 97 % 14 lf 1000,1 hPa 0,0 l/m 0 min 0 min 94 W/m 16,7 km/h (3 Bft) 93,62 %
09.11.2016 12:54 4,2 C 4,4 C 3,9 C 97 % 14 lf 1000,1 hPa 0,0 l/m 0 min 0 min 89 W/m 27,2 km/h (4 Bft) 95,74 %
09.11.2016 12:56 4,2 C 4,4 C 3,3 C 97 % 14 lf 1000,1 hPa 0,0 l/m 0 min 0 min 83 W/m 27,2 km/h (4 Bft) 93,62 %
09.11.2016 12:58 4,2 C 4,4 C 3,3 C 97 % 14 lf 1000,1 hPa 0,0 l/m 0 min 0 min 76 W/m 16,7 km/h (3 Bft) 91,49 %
09.11.2016 13:00 4,2 C 4,4 C 3,9 C 97 % 14 lf 1000,1 hPa 0,0 l/m 0 min 0 min 70 W/m 18,8 km/h (3 Bft) 95,65 %
09.11.2016 13:02 4,3 C 4,4 C 3,9 C 97 % 13 lf 1000,1 hPa 0,0 l/m 0 min 0 min 65 W/m 25,1 km/h (4 Bft) 97,87 %
09.11.2016 13:04 4,3 C 4,4 C 3,3 C 97 % 13 lf 1000,1 hPa 0,0 l/m 0 min 0 min 61 W/m 14,6 km/h (3 Bft) 93,62 %
09.11.2016 13:06 4,3 C 4,4 C 3,3 C 97 % 13 lf 1000,1 hPa 0,0 l/m 0 min 0 min 57 W/m 20,9 km/h (4 Bft) 95,74 %
09.11.2016 13:08 4,3 C 4,4 C 3,3 C 97 % 13 lf 1000,0 hPa 0,0 l/m 0 min 0 min 56 W/m 20,9 km/h (4 Bft) 95,74 %
09.11.2016 13:10 4,3 C 4,4 C 3,3 C 97 % 13 lf 1000,0 hPa 0,0 l/m 0 min 0 min 56 W/m 18,8 km/h (3 Bft) 97,87 %
09.11.2016 13:12 4,3 C 4,4 C 3,3 C 97 % 12 lf 1000,0 hPa 0,0 l/m 0 min 2 min 59 W/m 16,7 km/h (3 Bft) 93,48 %
09.11.2016 13:14 4,3 C 4,4 C 3,3 C 97 % 12 lf 999,9 hPa 0,0 l/m 0 min 2 min 61 W/m 23,0 km/h (4 Bft) 97,87 %
09.11.2016 13:16 4,3 C 4,4 C 3,3 C 97 % 11 lf 999,9 hPa 0,0 l/m 0 min 2 min 63 W/m 27,2 km/h (4 Bft) 95,74 %
09.11.2016 13:18 4,3 C 4,4 C 3,3 C 97 % 11 lf 999,9 hPa 0,0 l/m 0 min 2 min 64 W/m 27,2 km/h (4 Bft) 97,87 %
09.11.2016 13:20 4,3 C 4,4 C 3,3 C 97 % 12 lf 999,9 hPa 0,0 l/m 0 min 2 min 66 W/m 29,3 km/h (5 Bft) 100,00 %
09.11.2016 13:22 4,3 C 4,4 C 3,3 C 97 % 11 lf 999,8 hPa 0,0 l/m 0 min 2 min 67 W/m 20,9 km/h (4 Bft) 97,87 %
09.11.2016 13:24 4,3 C 4,4 C 3,3 C 97 % 11 lf 999,8 hPa 0,0 l/m 0 min 2 min 67 W/m 20,9 km/h (4 Bft) 93,48 %
09.11.2016 13:26 4,3 C 4,4 C 3,9 C 97 % 11 lf 999,8 hPa 0,0 l/m 0 min 2 min 67 W/m 16,7 km/h (3 Bft) 97,87 %
09.11.2016 13:28 4,3 C 4,4 C 3,9 C 97 % 12 lf 999,8 hPa 0,0 l/m 0 min 2 min 69 W/m 16,7 km/h (3 Bft) 97,87 %
09.11.2016 13:30 4,3 C 4,4 C 3,9 C 97 % 13 lf 999,8 hPa 0,0 l/m 0 min 2 min 71 W/m 18,8 km/h (3 Bft) 97,87 %
09.11.2016 13:32 4,4 C 4,4 C 3,3 C 97 % 13 lf 999,8 hPa 0,0 l/m 0 min 2 min 73 W/m 27,2 km/h (4 Bft) 89,36 %
09.11.2016 13:34 4,4 C 4,4 C 3,9 C 97 % 13 lf 999,8 hPa 0,0 l/m 0 min 2 min 73 W/m 23,0 km/h (4 Bft) 95,65 %
09.11.2016 13:36 4,4 C 4,4 C 3,9 C 97 % 13 lf 999,8 hPa 0,0 l/m 0 min 2 min 74 W/m 23,0 km/h (4 Bft) 93,62 %
09.11.2016 13:38 4,4 C 4,4 C 3,9 C 97 % 13 lf 999,8 hPa 0,0 l/m 0 min 2 min 76 W/m 20,9 km/h (4 Bft) 95,74 %
09.11.2016 13:40 4,4 C 4,4 C 3,9 C 97 % 13 lf 999,7 hPa 0,0 l/m 0 min 2 min 77 W/m 20,9 km/h (4 Bft) 93,62 %
09.11.2016 13:42 4,4 C 4,4 C 3,9 C 97 % 13 lf 999,7 hPa 0,2 l/m 0 min 2 min 78 W/m 29,3 km/h (5 Bft) 97,87 %
09.11.2016 13:44 4,4 C 4,4 C 3,9 C 97 % 13 lf 999,7 hPa 0,0 l/m 0 min 2 min 81 W/m 16,7 km/h (3 Bft) 97,87 %
09.11.2016 13:46 4,4 C 4,4 C 3,9 C 97 % 13 lf 999,6 hPa 0,0 l/m 0 min 2 min 82 W/m 20,9 km/h (4 Bft) 97,83 %
09.11.2016 13:48 4,5 C 4,4 C 3,9 C 97 % 13 lf 999,6 hPa 0,0 l/m 0 min 2 min 80 W/m 20,9 km/h (4 Bft) 97,87 %
09.11.2016 13:50 4,5 C 4,4 C 3,9 C 97 % 13 lf 999,6 hPa 0,0 l/m 0 min 2 min 78 W/m 18,8 km/h (3 Bft) 95,74 %
09.11.2016 13:52 4,5 C 4,4 C 3,9 C 97 % 13 lf 999,5 hPa 0,0 l/m 0 min 2 min 74 W/m 14,6 km/h (3 Bft) 93,62 %
09.11.2016 13:54 4,6 C 4,4 C 3,9 C 97 % 13 lf 999,4 hPa 0,0 l/m 0 min 2 min 70 W/m 18,8 km/h (3 Bft) 97,87 %
09.11.2016 13:56 4,6 C 4,4 C 3,9 C 97 % 13 lf 999,5 hPa 0,0 l/m 0 min 2 min 66 W/m 23,0 km/h (4 Bft) 95,74 %
09.11.2016 13:58 4,6 C 4,4 C 3,9 C 97 % 13 lf 999,4 hPa 0,0 l/m 0 min 2 min 62 W/m 23,0 km/h (4 Bft) 95,65 %
09.11.2016 14:00 4,6 C 4,4 C 3,9 C 97 % 13 lf 999,4 hPa 0,0 l/m 0 min 2 min 58 W/m 16,7 km/h (3 Bft) 97,87 %
09.11.2016 14:02 4,6 C 4,4 C 3,9 C 97 % 12 lf 999,4 hPa 0,0 l/m 0 min 2 min 54 W/m 16,7 km/h (3 Bft) 97,87 %
09.11.2016 14:04 4,6 C 4,4 C 3,9 C 97 % 13 lf 999,4 hPa 0,0 l/m 0 min 2 min 53 W/m 18,8 km/h (3 Bft) 93,62 %
09.11.2016 14:06 4,6 C 4,4 C 3,9 C 97 % 14 lf 999,4 hPa 0,0 l/m 0 min 2 min 53 W/m 29,3 km/h (5 Bft) 95,74 %
09.11.2016 14:08 4,6 C 4,4 C 3,9 C 97 % 14 lf 999,4 hPa 0,2 l/m 0 min 2 min 53 W/m 23,0 km/h (4 Bft) 95,74 %
09.11.2016 14:10 4,6 C 4,4 C 3,9 C 97 % 13 lf 999,4 hPa 0,0 l/m 0 min 2 min 53 W/m 27,2 km/h (4 Bft) 97,83 %
09.11.2016 14:12 4,6 C 4,4 C 3,3 C 97 % 14 lf 999,4 hPa 0,0 l/m 0 min 2 min 51 W/m 27,2 km/h (4 Bft) 97,87 %
09.11.2016 14:14 4,6 C 4,4 C 3,3 C 97 % 14 lf 999,4 hPa 0,0 l/m 0 min 2 min 51 W/m 25,1 km/h (4 Bft) 95,74 %
09.11.2016 14:16 4,6 C 4,4 C 3,3 C 97 % 14 lf 999,3 hPa 0,0 l/m 0 min 2 min 48 W/m 20,9 km/h (4 Bft) 95,74 %
09.11.2016 14:18 4,6 C 4,4 C 3,3 C 97 % 14 lf 999,3 hPa 0,0 l/m 0 min 2 min 47 W/m 25,1 km/h (4 Bft) 97,87 %
09.11.2016 14:20 4,6 C 4,4 C 3,3 C 97 % 14 lf 999,3 hPa 0,0 l/m 0 min 2 min 47 W/m 27,2 km/h (4 Bft) 93,62 %
09.11.2016 14:22 4,6 C 4,4 C 3,3 C 97 % 14 lf 999,3 hPa 0,0 l/m 0 min 2 min 48 W/m 20,9 km/h (4 Bft) 97,83 %
09.11.2016 14:24 4,6 C 4,4 C 3,3 C 97 % 14 lf 999,3 hPa 0,0 l/m 0 min 2 min 49 W/m 23,0 km/h (4 Bft) 95,74 %
09.11.2016 14:26 4,6 C 4,4 C 3,3 C 97 % 14 lf 999,2 hPa 0,0 l/m 0 min 2 min 49 W/m 29,3 km/h (5 Bft) 95,74 %
09.11.2016 14:28 4,6 C 4,4 C 3,3 C 97 % 14 lf 999,3 hPa 0,0 l/m 0 min 2 min 49 W/m 23,0 km/h (4 Bft) 95,65 %
09.11.2016 14:30 4,6 C 4,4 C 3,3 C 97 % 14 lf 999,2 hPa 0,0 l/m 0 min 2 min 48 W/m 20,9 km/h (4 Bft) 95,95 %
09.11.2016 14:32 4,6 C 4,4 C 3,3 C 97 % 14 lf 999,2 hPa 0,0 l/m 0 min 2 min 46 W/m 25,1 km/h (4 Bft) 93,48 %
09.11.2016 14:34 4,6 C 4,4 C 3,3 C 97 % 14 lf 999,1 hPa 0,0 l/m 0 min 2 min 44 W/m 18,8 km/h (3 Bft) 95,74 %
09.11.2016 14:36 4,6 C 4,4 C 3,3 C 97 % 15 lf 999,2 hPa 0,0 l/m 0 min 2 min 44 W/m 18,8 km/h (3 Bft) 93,62 %
09.11.2016 14:38 4,6 C 4,4 C 3,3 C 97 % 15 lf 999,2 hPa 0,2 l/m 0 min 2 min 43 W/m 25,1 km/h (4 Bft) 95,74 %
09.11.2016 14:40 4,6 C 4,4 C 3,3 C 97 % 15 lf 999,1 hPa 0,0 l/m 0 min 2 min 42 W/m 18,8 km/h (3 Bft) 95,74 %
09.11.2016 14:42 4,6 C 4,4 C 3,3 C 97 % 15 lf 999,1 hPa 0,0 l/m 0 min 2 min 44 W/m 18,8 km/h (3 Bft) 93,62 %
09.11.2016 14:44 4,6 C 4,4 C 3,3 C 97 % 15 lf 999,1 hPa 0,0 l/m 0 min 2 min 44 W/m 29,3 km/h (5 Bft) 93,48 %
09.11.2016 14:46 4,6 C 4,4 C 3,3 C 97 % 15 lf 999,0 hPa 0,0 l/m 0 min 2 min 44 W/m 18,8 km/h (3 Bft) 95,74 %
09.11.2016 14:48 4,6 C 4,4 C 3,9 C 97 % 15 lf 999,1 hPa 0,0 l/m 0 min 2 min 45 W/m 20,9 km/h (4 Bft) 93,62 %
09.11.2016 14:50 4,6 C 4,4 C 3,9 C 97 % 15 lf 999,0 hPa 0,0 l/m 0 min 2 min 44 W/m 16,7 km/h (3 Bft) 95,74 %
09.11.2016 14:52 4,6 C 4,4 C 3,9 C 97 % 15 lf 999,0 hPa 0,2 l/m 0 min 2 min 46 W/m 20,9 km/h (4 Bft) 93,62 %
09.11.2016 14:54 4,6 C 4,4 C 3,3 C 97 % 15 lf 999,1 hPa 0,0 l/m 0 min 2 min 40 W/m 16,7 km/h (3 Bft) 91,49 %
09.11.2016 14:56 4,7 C 4,4 C 3,9 C 97 % 15 lf 999,1 hPa 0,0 l/m 0 min 2 min 37 W/m 12,6 km/h (3 Bft) 95,65 %
09.11.2016 14:58 4,6 C 4,4 C 3,9 C 97 % 15 lf 999,0 hPa 0,0 l/m 0 min 2 min 37 W/m 20,9 km/h (4 Bft) 93,62 %
09.11.2016 15:00 4,7 C 4,4 C 3,9 C 97 % 15 lf 999,0 hPa 0,0 l/m 0 min 2 min 39 W/m 23,0 km/h (4 Bft) 95,74 %
09.11.2016 15:02 4,7 C 4,4 C 3,9 C 97 % 15 lf 999,0 hPa 0,0 l/m 0 min 2 min 35 W/m 18,8 km/h (3 Bft) 97,87 %
09.11.2016 15:04 4,7 C 4,4 C 3,3 C 97 % 15 lf 999,0 hPa 0,0 l/m 0 min 2 min 35 W/m 14,6 km/h (3 Bft) 91,49 %
09.11.2016 15:06 4,7 C 4,4 C 3,3 C 97 % 15 lf 998,9 hPa 0,0 l/m 0 min 2 min 34 W/m 16,7 km/h (3 Bft) 93,62 %
09.11.2016 15:08 4,7 C 4,4 C 3,9 C 97 % 15 lf 999,0 hPa 0,0 l/m 0 min 2 min 33 W/m 20,9 km/h (4 Bft) 93,48 %
09.11.2016 15:10 4,7 C 4,4 C 3,9 C 97 % 15 lf 998,9 hPa 0,0 l/m 0 min 2 min 32 W/m 16,7 km/h (3 Bft) 97,87 %
09.11.2016 15:12 4,7 C 4,4 C 3,3 C 97 % 15 lf 999,0 hPa 0,0 l/m 0 min 2 min 32 W/m 20,9 km/h (4 Bft) 93,62 %
09.11.2016 15:14 4,7 C 4,4 C 3,3 C 97 % 15 lf 998,9 hPa 0,0 l/m 0 min 2 min 33 W/m 25,1 km/h (4 Bft) 97,87 %
09.11.2016 15:16 4,7 C 4,4 C 3,9 C 97 % 15 lf 998,9 hPa 0,2 l/m 0 min 2 min 32 W/m 23,0 km/h (4 Bft) 91,49 %
09.11.2016 15:18 4,7 C 4,4 C 3,9 C 97 % 15 lf 998,9 hPa 0,0 l/m 0 min 2 min 30 W/m 23,0 km/h (4 Bft) 95,74 %
09.11.2016 15:20 4,7 C 4,4 C 3,3 C 97 % 15 lf 998,8 hPa 0,0 l/m 0 min 2 min 29 W/m 23,0 km/h (4 Bft) 97,83 %
09.11.2016 15:22 4,7 C 4,4 C 3,3 C 97 % 15 lf 998,8 hPa 0,0 l/m 0 min 2 min 26 W/m 18,8 km/h (3 Bft) 95,74 %
09.11.2016 15:24 4,7 C 4,4 C 3,3 C 97 % 15 lf 998,8 hPa 0,0 l/m 0 min 2 min 26 W/m 18,8 km/h (3 Bft) 95,74 %
09.11.2016 15:26 4,7 C 4,4 C 3,3 C 97 % 15 lf 998,8 hPa 0,0 l/m 0 min 2 min 25 W/m 14,6 km/h (3 Bft) 95,74 %
09.11.2016 15:28 4,7 C 4,4 C 3,3 C 97 % 15 lf 998,8 hPa 0,0 l/m 0 min 2 min 22 W/m 16,7 km/h (3 Bft) 95,74 %
09.11.2016 15:30 4,7 C 4,4 C 3,3 C 97 % 15 lf 998,7 hPa 0,0 l/m 0 min 2 min 25 W/m 14,6 km/h (3 Bft) 95,65 %
09.11.2016 15:32 4,7 C 4,4 C 3,3 C 97 % 15 lf 998,7 hPa 0,0 l/m 0 min 2 min 22 W/m 23,0 km/h (4 Bft) 93,62 %
09.11.2016 15:34 4,7 C 4,4 C 3,3 C 97 % 15 lf 998,7 hPa 0,2 l/m 0 min 2 min 21 W/m 20,9 km/h (4 Bft) 97,87 %
09.11.2016 15:36 4,7 C 4,4 C 3,3 C 97 % 15 lf 998,6 hPa 0,0 l/m 0 min 2 min 20 W/m 18,8 km/h (3 Bft) 97,87 %
09.11.2016 15:38 4,7 C 4,4 C 3,3 C 97 % 15 lf 998,7 hPa 0,0 l/m 0 min 2 min 19 W/m 23,0 km/h (4 Bft) 97,87 %
09.11.2016 15:40 4,7 C 4,4 C 3,3 C 97 % 15 lf 998,6 hPa 0,0 l/m 0 min 2 min 17 W/m 20,9 km/h (4 Bft) 95,74 %
09.11.2016 15:42 4,6 C 4,4 C 3,3 C 97 % 15 lf 998,6 hPa 0,0 l/m 0 min 2 min 16 W/m 18,8 km/h (3 Bft) 95,65 %
09.11.2016 15:44 4,6 C 4,4 C 3,3 C 97 % 15 lf 998,6 hPa 0,0 l/m 0 min 2 min 16 W/m 16,7 km/h (3 Bft) 97,87 %
09.11.2016 15:46 4,6 C 4,4 C 3,3 C 97 % 15 lf 998,6 hPa 0,0 l/m 0 min 2 min 14 W/m 16,7 km/h (3 Bft) 97,87 %
09.11.2016 15:48 4,6 C 4,4 C 3,3 C 97 % 15 lf 998,6 hPa 0,0 l/m 0 min 2 min 17 W/m 18,8 km/h (3 Bft) 95,74 %
09.11.2016 15:50 4,6 C 4,4 C 3,3 C 97 % 15 lf 998,5 hPa 0,0 l/m 0 min 2 min 19 W/m 20,9 km/h (4 Bft) 95,74 %
09.11.2016 15:52 4,6 C 4,4 C 3,3 C 97 % 15 lf 998,5 hPa 0,0 l/m 0 min 2 min 18 W/m 18,8 km/h (3 Bft) 95,74 %
09.11.2016 15:54 4,6 C 4,4 C 3,3 C 97 % 15 lf 998,5 hPa 0,2 l/m 0 min 2 min 17 W/m 16,7 km/h (3 Bft) 97,83 %
09.11.2016 15:56 4,6 C 4,4 C 3,3 C 97 % 15 lf 998,5 hPa 0,0 l/m 0 min 2 min 17 W/m 23,0 km/h (4 Bft) 93,62 %
09.11.2016 15:58 4,6 C 4,4 C 3,3 C 97 % 15 lf 998,5 hPa 0,0 l/m 0 min 2 min 16 W/m 25,1 km/h (4 Bft) 95,74 %
09.11.2016 16:00 4,6 C 4,4 C 3,3 C 97 % 15 lf 998,5 hPa 0,0 l/m 0 min 2 min 17 W/m 20,9 km/h (4 Bft) 93,62 %
09.11.2016 16:02 4,5 C 4,4 C 3,3 C 97 % 15 lf 998,5 hPa 0,0 l/m 0 min 2 min 15 W/m 18,8 km/h (3 Bft) 91,49 %
09.11.2016 16:04 4,5 C 4,4 C 3,3 C 97 % 15 lf 998,4 hPa 0,0 l/m 0 min 2 min 15 W/m 18,8 km/h (3 Bft) 95,74 %
09.11.2016 16:06 4,5 C 4,4 C 3,3 C 97 % 15 lf 998,4 hPa 0,0 l/m 0 min 2 min 14 W/m 18,8 km/h (3 Bft) 91,30 %
09.11.2016 16:08 4,5 C 4,4 C 3,3 C 97 % 15 lf 998,4 hPa 0,2 l/m 0 min 2 min 14 W/m 20,9 km/h (4 Bft) 97,87 %
09.11.2016 16:10 4,5 C 4,4 C 3,3 C 97 % 15 lf 998,4 hPa 0,0 l/m 0 min 2 min 13 W/m 16,7 km/h (3 Bft) 97,87 %
09.11.2016 16:12 4,5 C 4,4 C 3,3 C 97 % 15 lf 998,5 hPa 0,0 l/m 0 min 2 min 11 W/m 16,7 km/h (3 Bft) 97,87 %
09.11.2016 16:14 4,5 C 4,4 C 3,3 C 97 % 15 lf 998,4 hPa 0,0 l/m 0 min 2 min 11 W/m 16,7 km/h (3 Bft) 95,74 %
09.11.2016 16:16 4,5 C 4,4 C 3,3 C 97 % 15 lf 998,5 hPa 0,0 l/m 0 min 2 min 11 W/m 16,7 km/h (3 Bft) 97,83 %
09.11.2016 16:18 4,5 C 4,4 C 3,3 C 97 % 15 lf 998,4 hPa 0,0 l/m 0 min 2 min 9 W/m 14,6 km/h (3 Bft) 95,74 %
09.11.2016 16:20 4,5 C 4,4 C 3,3 C 97 % 15 lf 998,4 hPa 0,0 l/m 0 min 2 min 8 W/m 20,9 km/h (4 Bft) 95,74 %
09.11.2016 16:22 4,5 C 4,4 C 3,3 C 97 % 15 lf 998,4 hPa 0,2 l/m 0 min 2 min 7 W/m 16,7 km/h (3 Bft) 95,74 %
09.11.2016 16:24 4,5 C 4,4 C 3,3 C 97 % 15 lf 998,4 hPa 0,0 l/m 0 min 2 min 7 W/m 20,9 km/h (4 Bft) 97,87 %
09.11.2016 16:26 4,5 C 4,4 C 3,3 C 97 % 15 lf 998,4 hPa 0,0 l/m 0 min 2 min 7 W/m 27,2 km/h (4 Bft) 93,62 %
09.11.2016 16:28 4,4 C 4,4 C 3,3 C 97 % 15 lf 998,4 hPa 0,0 l/m 0 min 2 min 7 W/m 18,8 km/h (3 Bft) 95,65 %
09.11.2016 16:30 4,4 C 4,4 C 3,3 C 97 % 15 lf 998,4 hPa 0,0 l/m 0 min 2 min 7 W/m 18,8 km/h (3 Bft) 95,74 %
09.11.2016 16:32 4,4 C 4,4 C 3,3 C 97 % 15 lf 998,4 hPa 0,0 l/m 0 min 2 min 6 W/m 25,1 km/h (4 Bft) 95,74 %
09.11.2016 16:34 4,4 C 3,9 C 3,3 C 97 % 15 lf 998,4 hPa 0,2 l/m 0 min 2 min 5 W/m 14,6 km/h (3 Bft) 91,49 %
09.11.2016 16:36 4,4 C 3,9 C 3,3 C 97 % 15 lf 998,4 hPa 0,0 l/m 0 min 2 min 5 W/m 20,9 km/h (4 Bft) 95,74 %
09.11.2016 16:38 4,4 C 3,9 C 3,3 C 97 % 15 lf 998,4 hPa 0,0 l/m 0 min 2 min 5 W/m 20,9 km/h (4 Bft) 95,74 %
09.11.2016 16:40 4,4 C 3,9 C 3,3 C 97 % 15 lf 998,4 hPa 0,0 l/m 0 min 2 min 0 W/m 16,7 km/h (3 Bft) 89,13 %
09.11.2016 16:42 4,4 C 4,4 C 3,3 C 97 % 15 lf 998,4 hPa 0,0 l/m 0 min 2 min 0 W/m 10,5 km/h (2 Bft) 93,62 %
09.11.2016 16:44 4,4 C 3,9 C 3,3 C 97 % 15 lf 998,4 hPa 0,0 l/m 0 min 2 min 0 W/m 16,7 km/h (3 Bft) 95,74 %
09.11.2016 16:46 4,4 C 3,9 C 3,3 C 97 % 15 lf 998,4 hPa 0,2 l/m 0 min 2 min 0 W/m 16,7 km/h (3 Bft) 95,74 %
09.11.2016 16:48 4,3 C 3,9 C 3,3 C 97 % 15 lf 998,4 hPa 0,0 l/m 0 min 2 min 0 W/m 20,9 km/h (4 Bft) 95,74 %
09.11.2016 16:50 4,3 C 3,9 C 2,8 C 97 % 15 lf 998,3 hPa 0,0 l/m 0 min 2 min 0 W/m 20,9 km/h (4 Bft) 95,74 %
09.11.2016 16:52 4,3 C 3,9 C 2,8 C 97 % 15 lf 998,4 hPa 0,0 l/m 0 min 2 min 0 W/m 25,1 km/h (4 Bft) 97,83 %
09.11.2016 16:54 4,3 C 3,9 C 2,8 C 97 % 15 lf 998,3 hPa 0,0 l/m 0 min 2 min 0 W/m 20,9 km/h (4 Bft) 95,74 %
09.11.2016 16:56 4,3 C 3,9 C 2,8 C 97 % 15 lf 998,3 hPa 0,2 l/m 0 min 2 min 0 W/m 18,8 km/h (3 Bft) 97,87 %
09.11.2016 16:58 4,3 C 3,9 C 2,8 C 97 % 15 lf 998,4 hPa 0,0 l/m 0 min 2 min 0 W/m 18,8 km/h (3 Bft) 97,87 %
09.11.2016 17:00 4,2 C 3,9 C 2,8 C 97 % 15 lf 998,3 hPa 0,0 l/m 0 min 2 min 0 W/m 18,8 km/h (3 Bft) 100,00 %
09.11.2016 17:02 4,2 C 3,9 C 2,8 C 97 % 15 lf 998,4 hPa 0,0 l/m 0 min 2 min 0 W/m 27,2 km/h (4 Bft) 95,74 %
09.11.2016 17:04 4,2 C 3,9 C 2,8 C 97 % 15 lf 998,4 hPa 0,0 l/m 0 min 2 min 0 W/m 18,8 km/h (3 Bft) 100,00 %
09.11.2016 17:06 4,2 C 3,9 C 2,8 C 97 % 15 lf 998,4 hPa 0,0 l/m 0 min 2 min 0 W/m 31,4 km/h (5 Bft) 97,87 %
09.11.2016 17:08 4,1 C 3,9 C 2,8 C 97 % 15 lf 998,3 hPa 0,2 l/m 0 min 2 min 0 W/m 25,1 km/h (4 Bft) 97,87 %
09.11.2016 17:10 4,1 C 3,9 C 2,8 C 97 % 15 lf 998,3 hPa 0,0 l/m 0 min 2 min 0 W/m 16,7 km/h (3 Bft) 100,00 %
09.11.2016 17:12 4,1 C 3,9 C 2,8 C 97 % 15 lf 998,3 hPa 0,0 l/m 0 min 2 min 0 W/m 20,9 km/h (4 Bft) 100,00 %
09.11.2016 17:14 4,0 C 3,9 C 2,8 C 97 % 15 lf 998,4 hPa 0,0 l/m 0 min 2 min 0 W/m 25,1 km/h (4 Bft) 100,00 %
09.11.2016 17:16 4,0 C 3,9 C 2,8 C 97 % 15 lf 998,3 hPa 0,0 l/m 0 min 2 min 0 W/m 14,6 km/h (3 Bft) 100,00 %
09.11.2016 17:18 4,0 C 3,9 C 2,8 C 97 % 15 lf 998,3 hPa 0,2 l/m 0 min 2 min 0 W/m 23,0 km/h (4 Bft) 100,00 %
09.11.2016 17:20 4,0 C 3,9 C 2,8 C 97 % 15 lf 998,3 hPa 0,0 l/m 0 min 2 min 0 W/m 18,8 km/h (3 Bft) 97,87 %
09.11.2016 17:22 3,9 C 3,9 C 2,8 C 97 % 15 lf 998,3 hPa 0,0 l/m 0 min 2 min 0 W/m 23,0 km/h (4 Bft) 100,00 %
09.11.2016 17:24 3,9 C 3,9 C 2,8 C 97 % 15 lf 998,3 hPa 0,0 l/m 0 min 2 min 0 W/m 18,8 km/h (3 Bft) 95,74 %
09.11.2016 17:26 3,9 C 3,9 C 2,8 C 97 % 15 lf 998,3 hPa 0,0 l/m 0 min 2 min 0 W/m 18,8 km/h (3 Bft) 100,00 %
09.11.2016 17:28 3,9 C 3,9 C 2,8 C 97 % 15 lf 998,3 hPa 0,0 l/m 0 min 2 min 0 W/m 20,9 km/h (4 Bft) 100,00 %
09.11.2016 17:30 3,9 C 3,9 C 2,8 C 97 % 15 lf 998,3 hPa 0,2 l/m 0 min 2 min 0 W/m 20,9 km/h (4 Bft) 95,74 %
09.11.2016 17:32 3,9 C 3,9 C 2,8 C 97 % 15 lf 998,2 hPa 0,0 l/m 0 min 2 min 0 W/m 23,0 km/h (4 Bft) 100,00 %
09.11.2016 17:34 3,9 C 3,9 C 2,8 C 97 % 15 lf 998,3 hPa 0,0 l/m 0 min 2 min 0 W/m 16,7 km/h (3 Bft) 100,00 %
09.11.2016 17:36 3,9 C 3,9 C 2,8 C 97 % 15 lf 998,3 hPa 0,0 l/m 0 min 2 min 0 W/m 27,2 km/h (4 Bft) 97,87 %
09.11.2016 17:38 3,9 C 3,9 C 2,8 C 97 % 15 lf 998,3 hPa 0,0 l/m 0 min 2 min 0 W/m 20,9 km/h (4 Bft) 100,00 %
09.11.2016 17:40 3,9 C 3,9 C 2,8 C 97 % 15 lf 998,3 hPa 0,2 l/m 0 min 2 min 0 W/m 14,6 km/h (3 Bft) 100,00 %
09.11.2016 17:42 3,9 C 3,9 C 2,8 C 97 % 15 lf 998,3 hPa 0,0 l/m 0 min 2 min 0 W/m 18,8 km/h (3 Bft) 97,87 %
09.11.2016 17:44 3,9 C 3,9 C 2,8 C 97 % 15 lf 998,3 hPa 0,0 l/m 0 min 2 min 0 W/m 16,7 km/h (3 Bft) 100,00 %
09.11.2016 17:46 3,9 C 3,9 C 2,8 C 97 % 15 lf 998,3 hPa 0,0 l/m 0 min 2 min 0 W/m 16,7 km/h (3 Bft) 100,00 %
09.11.2016 17:48 3,9 C 3,9 C 2,8 C 97 % 15 lf 998,3 hPa 0,2 l/m 0 min 2 min 0 W/m 16,7 km/h (3 Bft) 97,87 %
09.11.2016 17:50 3,9 C 3,9 C 2,8 C 97 % 15 lf 998,3 hPa 0,0 l/m 0 min 2 min 0 W/m 14,6 km/h (3 Bft) 100,00 %
09.11.2016 17:52 3,9 C 3,9 C 2,8 C 97 % 15 lf 998,3 hPa 0,0 l/m 0 min 2 min 0 W/m 16,7 km/h (3 Bft) 100,00 %
09.11.2016 17:54 3,9 C 3,9 C 2,8 C 97 % 15 lf 998,3 hPa 0,0 l/m 0 min 2 min 0 W/m 16,7 km/h (3 Bft) 100,00 %
09.11.2016 17:56 3,9 C 3,9 C 2,8 C 97 % 15 lf 998,3 hPa 0,2 l/m 0 min 2 min 0 W/m 10,5 km/h (2 Bft) 100,00 %
09.11.2016 17:58 3,9 C 3,9 C 2,8 C 97 % 15 lf 998,3 hPa 0,0 l/m 0 min 2 min 0 W/m 33,5 km/h (5 Bft) 100,00 %
09.11.2016 18:00 3,9 C 3,9 C 2,8 C 97 % 15 lf 998,3 hPa 0,0 l/m 0 min 2 min 0 W/m 27,2 km/h (4 Bft) 100,00 %
09.11.2016 18:02 3,9 C 3,9 C 2,8 C 97 % 15 lf 998,3 hPa 0,0 l/m 0 min 2 min 0 W/m 25,1 km/h (4 Bft) 97,83 %
09.11.2016 18:06 3,9 C 3,9 C 2,8 C 97 % 15 lf 998,3 hPa 0,0 l/m 0 min 2 min 0 W/m 23,0 km/h (4 Bft) 96,81 %
09.11.2016 18:08 3,9 C 3,9 C 2,8 C 97 % 15 lf 998,3 hPa 0,2 l/m 0 min 2 min 0 W/m 16,7 km/h (3 Bft) 97,87 %
09.11.2016 18:10 3,8 C 3,3 C 2,8 C 97 % 15 lf 998,3 hPa 0,0 l/m 0 min 2 min 0 W/m 14,6 km/h (3 Bft) 97,87 %
09.11.2016 18:12 3,8 C 3,3 C 2,8 C 97 % 15 lf 998,3 hPa 0,0 l/m 0 min 2 min 0 W/m 12,6 km/h (3 Bft) 91,49 %
09.11.2016 18:14 3,8 C 3,3 C 2,8 C 97 % 15 lf 998,3 hPa 0,0 l/m 0 min 2 min 0 W/m 12,6 km/h (3 Bft) 95,65 %
09.11.2016 18:16 3,8 C 3,9 C 2,8 C 97 % 15 lf 998,3 hPa 0,0 l/m 0 min 2 min 0 W/m 14,6 km/h (3 Bft) 93,62 %
09.11.2016 18:18 3,8 C 3,9 C 2,8 C 97 % 15 lf 998,3 hPa 0,2 l/m 0 min 2 min 0 W/m 14,6 km/h (3 Bft) 93,62 %
09.11.2016 18:20 3,8 C 3,9 C 2,8 C 97 % 15 lf 998,3 hPa 0,0 l/m 0 min 2 min 0 W/m 18,8 km/h (3 Bft) 93,62 %
09.11.2016 18:22 3,8 C 3,9 C 2,8 C 97 % 15 lf 998,3 hPa 0,0 l/m 0 min 2 min 0 W/m 10,5 km/h (2 Bft) 93,62 %
09.11.2016 18:24 3,8 C 3,9 C 2,8 C 97 % 15 lf 998,3 hPa 0,0 l/m 0 min 2 min 0 W/m 16,7 km/h (3 Bft) 93,62 %
09.11.2016 18:26 3,8 C 3,9 C 2,8 C 97 % 15 lf 998,3 hPa 0,0 l/m 0 min 2 min 0 W/m 16,7 km/h (3 Bft) 91,30 %
09.11.2016 18:28 3,8 C 3,9 C 2,8 C 97 % 15 lf 998,3 hPa 0,2 l/m 0 min 2 min 0 W/m 25,1 km/h (4 Bft) 91,49 %
09.11.2016 18:30 3,8 C 3,9 C 2,8 C 97 % 15 lf 998,3 hPa 0,0 l/m 0 min 2 min 0 W/m 14,6 km/h (3 Bft) 93,62 %
09.11.2016 18:32 3,8 C 3,9 C 2,8 C 97 % 15 lf 998,3 hPa 0,0 l/m 0 min 2 min 0 W/m 18,8 km/h (3 Bft) 93,62 %
09.11.2016 18:34 3,8 C 3,9 C 2,8 C 97 % 15 lf 998,3 hPa 0,0 l/m 0 min 2 min 0 W/m 20,9 km/h (4 Bft) 93,62 %
09.11.2016 18:36 3,8 C 3,9 C 2,8 C 97 % 15 lf 998,3 hPa 0,2 l/m 0 min 2 min 0 W/m 12,6 km/h (3 Bft) 87,23 %
09.11.2016 18:38 3,8 C 3,9 C 2,8 C 97 % 15 lf 998,3 hPa 0,0 l/m 0 min 2 min 0 W/m 18,8 km/h (3 Bft) 91,30 %
09.11.2016 18:40 3,8 C 3,9 C 2,8 C 97 % 15 lf 998,2 hPa 0,0 l/m 0 min 2 min 0 W/m 16,7 km/h (3 Bft) 91,49 %
09.11.2016 18:42 3,8 C 3,9 C 2,8 C 97 % 15 lf 998,3 hPa 0,0 l/m 0 min 2 min 0 W/m 12,6 km/h (3 Bft) 91,49 %
09.11.2016 18:44 3,8 C 3,3 C 2,8 C 97 % 15 lf 998,3 hPa 0,2 l/m 0 min 2 min 0 W/m 23,0 km/h (4 Bft) 89,36 %
09.11.2016 18:46 3,8 C 3,3 C 2,8 C 97 % 15 lf 998,3 hPa 0,0 l/m 0 min 2 min 0 W/m 14,6 km/h (3 Bft) 91,49 %
09.11.2016 18:48 3,8 C 3,3 C 2,8 C 97 % 15 lf 998,3 hPa 0,0 l/m 0 min 2 min 0 W/m 14,6 km/h (3 Bft) 93,48 %
09.11.2016 18:50 3,8 C 3,3 C 2,8 C 97 % 15 lf 998,3 hPa 0,2 l/m 0 min 2 min 0 W/m 18,8 km/h (3 Bft) 93,62 %
09.11.2016 18:52 3,8 C 3,3 C 2,8 C 97 % 15 lf 998,3 hPa 0,0 l/m 0 min 2 min 0 W/m 18,8 km/h (3 Bft) 93,62 %
09.11.2016 18:54 3,8 C 3,3 C 2,8 C 97 % 15 lf 998,3 hPa 0,0 l/m 0 min 2 min 0 W/m 10,5 km/h (2 Bft) 93,62 %
09.11.2016 18:56 3,7 C 3,3 C 2,8 C 97 % 15 lf 998,2 hPa 0,0 l/m 0 min 2 min 0 W/m 18,8 km/h (3 Bft) 93,62 %
09.11.2016 18:58 3,7 C 3,3 C 2,2 C 97 % 15 lf 998,2 hPa 0,2 l/m 0 min 2 min 0 W/m 16,7 km/h (3 Bft) 91,49 %
09.11.2016 19:00 3,7 C 3,3 C 2,2 C 97 % 15 lf 998,3 hPa 0,0 l/m 0 min 2 min 0 W/m 16,7 km/h (3 Bft) 95,65 %
09.11.2016 19:02 3,7 C 3,3 C 2,8 C 97 % 15 lf 998,2 hPa 0,0 l/m 0 min 2 min 0 W/m 10,5 km/h (2 Bft) 93,62 %
09.11.2016 19:04 3,7 C 3,3 C 2,2 C 97 % 15 lf 998,2 hPa 0,2 l/m 0 min 2 min 0 W/m 18,8 km/h (3 Bft) 89,36 %
09.11.2016 19:06 3,7 C 3,3 C 2,2 C 97 % 15 lf 998,3 hPa 0,0 l/m 0 min 2 min 0 W/m 20,9 km/h (4 Bft) 97,87 %
09.11.2016 19:08 3,7 C 3,3 C 2,2 C 97 % 15 lf 998,2 hPa 0,0 l/m 0 min 2 min 0 W/m 16,7 km/h (3 Bft) 95,74 %
09.11.2016 19:10 3,7 C 3,3 C 2,2 C 97 % 15 lf 998,2 hPa 0,0 l/m 0 min 2 min 0 W/m 25,1 km/h (4 Bft) 95,74 %
09.11.2016 19:12 3,7 C 3,3 C 2,2 C 97 % 15 lf 998,2 hPa 0,2 l/m 0 min 2 min 0 W/m 14,6 km/h (3 Bft) 91,30 %
09.11.2016 19:14 3,7 C 3,3 C 2,2 C 97 % 15 lf 998,1 hPa 0,0 l/m 0 min 2 min 0 W/m 12,6 km/h (3 Bft) 91,49 %
09.11.2016 19:16 3,6 C 3,3 C 2,2 C 97 % 15 lf 998,2 hPa 0,0 l/m 0 min 2 min 0 W/m 16,7 km/h (3 Bft) 95,74 %
09.11.2016 19:18 3,6 C 3,3 C 2,2 C 97 % 15 lf 998,3 hPa 0,2 l/m 0 min 2 min 0 W/m 16,7 km/h (3 Bft) 93,62 %
09.11.2016 19:20 3,6 C 3,3 C 2,2 C 97 % 15 lf 998,3 hPa 0,0 l/m 0 min 2 min 0 W/m 12,6 km/h (3 Bft) 93,62 %
09.11.2016 19:22 3,6 C 3,3 C 2,2 C 97 % 15 lf 998,2 hPa 0,0 l/m 0 min 2 min 0 W/m 12,6 km/h (3 Bft) 95,74 %
09.11.2016 19:24 3,6 C 3,3 C 2,2 C 97 % 15 lf 998,2 hPa 0,2 l/m 0 min 2 min 0 W/m 20,9 km/h (4 Bft) 95,65 %
09.11.2016 19:26 3,6 C 3,3 C 2,2 C 97 % 15 lf 998,3 hPa 0,0 l/m 0 min 2 min 0 W/m 23,0 km/h (4 Bft) 100,00 %
09.11.2016 19:28 3,5 C 3,3 C 2,2 C 97 % 15 lf 998,2 hPa 0,0 l/m 0 min 2 min 0 W/m 16,7 km/h (3 Bft) 97,87 %
09.11.2016 19:30 3,5 C 3,3 C 2,2 C 97 % 15 lf 998,2 hPa 0,2 l/m 0 min 2 min 0 W/m 18,8 km/h (3 Bft) 93,62 %
09.11.2016 19:32 3,5 C 3,3 C 2,2 C 97 % 15 lf 998,2 hPa 0,0 l/m 0 min 2 min 0 W/m 14,6 km/h (3 Bft) 100,00 %
09.11.2016 19:34 3,4 C 3,3 C 2,2 C 97 % 15 lf 998,3 hPa 0,0 l/m 0 min 2 min 0 W/m 20,9 km/h (4 Bft) 97,87 %
09.11.2016 19:36 3,4 C 3,3 C 2,2 C 97 % 15 lf 998,3 hPa 0,0 l/m 0 min 2 min 0 W/m 18,8 km/h (3 Bft) 100,00 %
09.11.2016 19:38 3,4 C 3,3 C 2,2 C 97 % 15 lf 998,3 hPa 0,2 l/m 0 min 2 min 0 W/m 25,1 km/h (4 Bft) 97,87 %
09.11.2016 19:40 3,4 C 3,3 C 2,2 C 97 % 15 lf 998,3 hPa 0,0 l/m 0 min 2 min 0 W/m 14,6 km/h (3 Bft) 100,00 %
09.11.2016 19:42 3,4 C 3,3 C 2,2 C 97 % 15 lf 998,3 hPa 0,0 l/m 0 min 2 min 0 W/m 14,6 km/h (3 Bft) 95,74 %
09.11.2016 19:44 3,4 C 3,3 C 2,2 C 97 % 15 lf 998,3 hPa 0,0 l/m 0 min 2 min 0 W/m 10,5 km/h (2 Bft) 95,74 %
09.11.2016 19:46 3,4 C 3,3 C 2,2 C 97 % 15 lf 998,3 hPa 0,0 l/m 0 min 2 min 0 W/m 14,6 km/h (3 Bft) 95,65 %
09.11.2016 19:48 3,4 C 3,3 C 2,2 C 97 % 15 lf 998,4 hPa 0,2 l/m 0 min 2 min 0 W/m 16,7 km/h (3 Bft) 100,00 %
09.11.2016 19:50 3,3 C 3,3 C 2,2 C 97 % 15 lf 998,3 hPa 0,0 l/m 0 min 2 min 0 W/m 18,8 km/h (3 Bft) 100,00 %
09.11.2016 19:52 3,3 C 3,3 C 2,2 C 97 % 15 lf 998,3 hPa 0,0 l/m 0 min 2 min 0 W/m 12,6 km/h (3 Bft) 93,62 %
09.11.2016 19:54 3,3 C 3,3 C 2,2 C 97 % 15 lf 998,4 hPa 0,0 l/m 0 min 2 min 0 W/m 18,8 km/h (3 Bft) 97,87 %
09.11.2016 19:56 3,3 C 3,3 C 2,2 C 97 % 15 lf 998,4 hPa 0,0 l/m 0 min 2 min 0 W/m 10,5 km/h (2 Bft) 97,87 %
09.11.2016 19:58 3,3 C 3,3 C 2,2 C 97 % 15 lf 998,4 hPa 0,0 l/m 0 min 2 min 0 W/m 14,6 km/h (3 Bft) 100,00 %
09.11.2016 20:00 3,3 C 2,8 C 2,2 C 97 % 15 lf 998,5 hPa 0,2 l/m 0 min 2 min 0 W/m 20,9 km/h (4 Bft) 95,74 %
09.11.2016 20:02 3,3 C 2,8 C 2,2 C 97 % 15 lf 998,4 hPa 0,0 l/m 0 min 2 min 0 W/m 16,7 km/h (3 Bft) 93,62 %
09.11.2016 20:04 3,2 C 2,8 C 2,2 C 97 % 15 lf 998,4 hPa 0,0 l/m 0 min 2 min 0 W/m 14,6 km/h (3 Bft) 95,74 %
09.11.2016 20:06 3,2 C 2,8 C 1,7 C 97 % 15 lf 998,4 hPa 0,0 l/m 0 min 2 min 0 W/m 18,8 km/h (3 Bft) 95,74 %
09.11.2016 20:08 3,2 C 2,8 C 1,7 C 97 % 15 lf 998,4 hPa 0,2 l/m 0 min 2 min 0 W/m 16,7 km/h (3 Bft) 91,49 %
09.11.2016 20:10 3,2 C 2,8 C 1,7 C 97 % 15 lf 998,5 hPa 0,0 l/m 0 min 2 min 0 W/m 16,7 km/h (3 Bft) 97,83 %
09.11.2016 20:12 3,2 C 2,8 C 1,7 C 97 % 15 lf 998,5 hPa 0,0 l/m 0 min 2 min 0 W/m 14,6 km/h (3 Bft) 97,87 %
09.11.2016 20:14 3,2 C 2,8 C 1,7 C 97 % 15 lf 998,5 hPa 0,0 l/m 0 min 2 min 0 W/m 16,7 km/h (3 Bft) 95,74 %
09.11.2016 20:16 3,1 C 2,8 C 1,7 C 97 % 15 lf 998,5 hPa 0,2 l/m 0 min 2 min 0 W/m 14,6 km/h (3 Bft) 97,87 %
09.11.2016 20:18 3,1 C 2,8 C 1,7 C 97 % 15 lf 998,5 hPa 0,0 l/m 0 min 2 min 0 W/m 10,5 km/h (2 Bft) 97,87 %
09.11.2016 20:20 3,1 C 2,8 C 1,7 C 97 % 15 lf 998,5 hPa 0,0 l/m 0 min 2 min 0 W/m 16,7 km/h (3 Bft) 93,62 %
09.11.2016 20:22 3,1 C 2,8 C 1,7 C 97 % 15 lf 998,4 hPa 0,0 l/m 0 min 2 min 0 W/m 20,9 km/h (4 Bft) 93,48 %
09.11.2016 20:24 3,1 C 2,8 C 1,7 C 97 % 15 lf 998,5 hPa 0,2 l/m 0 min 2 min 0 W/m 10,5 km/h (2 Bft) 93,62 %
09.11.2016 20:26 3,0 C 2,8 C 1,7 C 97 % 15 lf 998,5 hPa 0,0 l/m 0 min 2 min 0 W/m 10,5 km/h (2 Bft) 97,87 %
09.11.2016 20:28 3,0 C 2,8 C 1,7 C 97 % 15 lf 998,5 hPa 0,0 l/m 0 min 2 min 0 W/m 14,6 km/h (3 Bft) 95,74 %
09.11.2016 20:30 3,0 C 2,8 C 1,7 C 97 % 15 lf 998,5 hPa 0,0 l/m 0 min 2 min 0 W/m 14,6 km/h (3 Bft) 95,74 %
09.11.2016 20:32 3,0 C 2,8 C 1,7 C 97 % 15 lf 998,5 hPa 0,0 l/m 0 min 2 min 0 W/m 14,6 km/h (3 Bft) 100,00 %
09.11.2016 20:34 2,9 C 2,8 C 1,7 C 97 % 15 lf 998,6 hPa 0,0 l/m 0 min 2 min 0 W/m 16,7 km/h (3 Bft) 97,83 %
09.11.2016 20:36 2,9 C 2,8 C 1,7 C 97 % 15 lf 998,6 hPa 0,2 l/m 0 min 2 min 0 W/m 14,6 km/h (3 Bft) 95,74 %
09.11.2016 20:38 2,9 C 2,8 C 1,7 C 97 % 15 lf 998,6 hPa 0,0 l/m 0 min 2 min 0 W/m 14,6 km/h (3 Bft) 97,87 %
09.11.2016 20:40 2,9 C 2,8 C 1,7 C 97 % 15 lf 998,6 hPa 0,0 l/m 0 min 2 min 0 W/m 10,5 km/h (2 Bft) 97,87 %
09.11.2016 20:42 2,9 C 2,8 C 1,7 C 97 % 15 lf 998,6 hPa 0,0 l/m 0 min 2 min 0 W/m 10,5 km/h (2 Bft) 97,87 %
09.11.2016 20:44 2,9 C 2,8 C 1,7 C 97 % 15 lf 998,6 hPa 0,2 l/m 0 min 2 min 0 W/m 12,6 km/h (3 Bft) 97,87 %
09.11.2016 20:46 2,9 C 2,8 C 1,7 C 97 % 15 lf 998,7 hPa 0,0 l/m 0 min 2 min 0 W/m 10,5 km/h (2 Bft) 95,65 %
09.11.2016 20:48 2,9 C 2,8 C 1,7 C 97 % 15 lf 998,7 hPa 0,0 l/m 0 min 2 min 0 W/m 10,5 km/h (2 Bft) 97,87 %
09.11.2016 20:50 2,9 C 2,8 C 1,7 C 97 % 15 lf 998,7 hPa 0,0 l/m 0 min 2 min 0 W/m 10,5 km/h (2 Bft) 100,00 %
09.11.2016 20:52 2,9 C 2,8 C 1,7 C 97 % 15 lf 998,7 hPa 0,0 l/m 0 min 2 min 0 W/m 8,4 km/h (2 Bft) 100,00 %
09.11.2016 20:54 2,8 C 2,8 C 1,7 C 97 % 15 lf 998,7 hPa 0,2 l/m 0 min 2 min 0 W/m 12,6 km/h (3 Bft) 93,62 %
09.11.2016 20:56 2,8 C 2,8 C 1,7 C 97 % 15 lf 998,7 hPa 0,0 l/m 0 min 2 min 0 W/m 10,5 km/h (2 Bft) 100,00 %
09.11.2016 20:58 2,8 C 2,8 C 1,7 C 97 % 15 lf 998,7 hPa 0,0 l/m 0 min 2 min 0 W/m 10,5 km/h (2 Bft) 100,00 %
09.11.2016 21:00 2,8 C 2,8 C 1,7 C 97 % 15 lf 998,7 hPa 0,0 l/m 0 min 2 min 0 W/m 12,6 km/h (3 Bft) 97,87 %
09.11.2016 21:02 2,8 C 2,8 C 1,7 C 97 % 15 lf 998,7 hPa 0,0 l/m 0 min 2 min 0 W/m 10,5 km/h (2 Bft) 100,00 %
09.11.2016 21:04 2,8 C 2,8 C 1,7 C 97 % 15 lf 998,8 hPa 0,2 l/m 0 min 2 min 0 W/m 16,7 km/h (3 Bft) 97,87 %
09.11.2016 21:06 2,8 C 2,8 C 1,7 C 97 % 15 lf 998,8 hPa 0,0 l/m 0 min 2 min 0 W/m 8,4 km/h (2 Bft) 100,00 %
09.11.2016 21:08 2,8 C 2,8 C 1,7 C 97 % 15 lf 998,8 hPa 0,0 l/m 0 min 2 min 0 W/m 6,3 km/h (2 Bft) 97,83 %
09.11.2016 21:10 2,8 C 2,8 C 1,7 C 97 % 15 lf 998,8 hPa 0,0 l/m 0 min 2 min 0 W/m 14,6 km/h (3 Bft) 97,87 %
09.11.2016 21:12 2,8 C 2,8 C 1,7 C 97 % 15 lf 998,9 hPa 0,2 l/m 0 min 2 min 0 W/m 10,5 km/h (2 Bft) 95,74 %
09.11.2016 21:14 2,8 C 2,8 C 1,7 C 97 % 15 lf 998,8 hPa 0,0 l/m 0 min 2 min 0 W/m 6,3 km/h (2 Bft) 95,74 %
09.11.2016 21:16 2,8 C 2,8 C 1,7 C 97 % 15 lf 998,9 hPa 0,0 l/m 0 min 2 min 0 W/m 4,2 km/h (1 Bft) 95,74 %
09.11.2016 21:18 2,8 C 2,8 C 1,7 C 97 % 15 lf 999,0 hPa 0,2 l/m 0 min 2 min 0 W/m 6,3 km/h (2 Bft) 93,62 %
09.11.2016 21:20 2,8 C 2,8 C 1,7 C 97 % 15 lf 999,0 hPa 0,0 l/m 0 min 2 min 0 W/m 4,2 km/h (1 Bft) 91,30 %
09.11.2016 21:22 2,8 C 2,8 C 1,7 C 97 % 15 lf 999,0 hPa 0,0 l/m 0 min 2 min 0 W/m 6,3 km/h (2 Bft) 93,62 %
09.11.2016 21:24 2,8 C 2,8 C 1,7 C 97 % 15 lf 999,0 hPa 0,2 l/m 0 min 2 min 0 W/m 4,2 km/h (1 Bft) 93,62 %
09.11.2016 21:26 2,8 C 2,8 C 1,7 C 97 % 15 lf 999,1 hPa 0,0 l/m 0 min 2 min 0 W/m 6,3 km/h (2 Bft) 95,74 %
09.11.2016 21:28 2,8 C 2,8 C 1,7 C 97 % 15 lf 999,1 hPa 0,0 l/m 0 min 2 min 0 W/m 6,3 km/h (2 Bft) 91,49 %
09.11.2016 21:30 2,8 C 2,8 C 1,7 C 97 % 15 lf 999,1 hPa 0,0 l/m 0 min 2 min 0 W/m 6,3 km/h (2 Bft) 95,74 %
09.11.2016 21:32 2,8 C 2,8 C 1,7 C 97 % 15 lf 999,1 hPa 0,2 l/m 0 min 2 min 0 W/m 6,3 km/h (2 Bft) 95,65 %
09.11.2016 21:34 2,8 C 2,8 C 1,7 C 97 % 15 lf 999,2 hPa 0,0 l/m 0 min 2 min 0 W/m 4,2 km/h (1 Bft) 89,36 %
09.11.2016 21:36 2,8 C 2,8 C 1,7 C 97 % 15 lf 999,2 hPa 0,0 l/m 0 min 2 min 0 W/m 4,2 km/h (1 Bft) 95,74 %
09.11.2016 21:38 2,8 C 2,8 C 1,7 C 97 % 15 lf 999,2 hPa 0,0 l/m 0 min 2 min 0 W/m 4,2 km/h (1 Bft) 93,62 %
09.11.2016 21:40 2,7 C 2,8 C 1,7 C 97 % 15 lf 999,2 hPa 0,2 l/m 0 min 2 min 0 W/m 10,5 km/h (2 Bft) 93,62 %
09.11.2016 21:42 2,7 C 2,8 C 1,7 C 97 % 15 lf 999,3 hPa 0,0 l/m 0 min 2 min 0 W/m 8,4 km/h (2 Bft) 95,74 %
09.11.2016 21:44 2,7 C 2,8 C 1,7 C 97 % 15 lf 999,4 hPa 0,2 l/m 0 min 2 min 0 W/m 2,1 km/h (1 Bft) 91,30 %
09.11.2016 21:46 2,7 C 2,8 C 1,7 C 97 % 15 lf 999,4 hPa 0,0 l/m 0 min 2 min 0 W/m 4,2 km/h (1 Bft) 95,74 %
09.11.2016 21:48 2,7 C 2,8 C 1,7 C 97 % 15 lf 999,4 hPa 0,0 l/m 0 min 2 min 0 W/m 4,2 km/h (1 Bft) 93,62 %
09.11.2016 21:50 2,7 C 2,8 C 1,7 C 97 % 15 lf 999,5 hPa 0,0 l/m 0 min 2 min 0 W/m 6,3 km/h (2 Bft) 89,36 %
09.11.2016 21:52 2,7 C 2,8 C 1,7 C 97 % 15 lf 999,5 hPa 0,2 l/m 0 min 2 min 0 W/m 2,1 km/h (1 Bft) 93,62 %
09.11.2016 21:54 2,7 C 2,8 C 1,7 C 97 % 15 lf 999,5 hPa 0,0 l/m 0 min 2 min 0 W/m 4,2 km/h (1 Bft) 91,49 %
09.11.2016 21:56 2,7 C 2,2 C 1,7 C 97 % 15 lf 999,6 hPa 0,0 l/m 0 min 2 min 0 W/m 8,4 km/h (2 Bft) 91,30 %
09.11.2016 21:58 2,7 C 2,2 C 1,7 C 97 % 15 lf 999,5 hPa 0,2 l/m 0 min 2 min 0 W/m 4,2 km/h (1 Bft) 94,59 %
09.11.2016 22:00 2,7 C 2,2 C 1,7 C 97 % 15 lf 999,6 hPa 0,0 l/m 0 min 2 min 0 W/m 6,3 km/h (2 Bft) 95,65 %
09.11.2016 22:02 2,7 C 2,2 C 1,1 C 97 % 15 lf 999,6 hPa 0,0 l/m 0 min 2 min 0 W/m 4,2 km/h (1 Bft) 93,62 %
09.11.2016 22:04 2,7 C 2,2 C 1,1 C 97 % 15 lf 999,6 hPa 0,0 l/m 0 min 2 min 0 W/m 6,3 km/h (2 Bft) 95,74 %
09.11.2016 22:06 2,6 C 2,2 C 1,1 C 97 % 15 lf 999,6 hPa 0,0 l/m 0 min 2 min 0 W/m 6,3 km/h (2 Bft) 97,87 %
09.11.2016 22:08 2,6 C 2,2 C 1,1 C 97 % 15 lf 999,7 hPa 0,2 l/m 0 min 2 min 0 W/m 6,3 km/h (2 Bft) 97,87 %
09.11.2016 22:10 2,6 C 2,2 C 1,1 C 97 % 15 lf 999,6 hPa 0,0 l/m 0 min 2 min 0 W/m 6,3 km/h (2 Bft) 97,87 %
09.11.2016 22:12 2,6 C 2,2 C 1,1 C 97 % 15 lf 999,7 hPa 0,0 l/m 0 min 2 min 0 W/m 8,4 km/h (2 Bft) 97,83 %
09.11.2016 22:14 2,5 C 2,2 C 1,1 C 97 % 15 lf 999,7 hPa 0,0 l/m 0 min 2 min 0 W/m 10,5 km/h (2 Bft) 95,74 %
09.11.2016 22:16 2,5 C 2,2 C 1,1 C 97 % 15 lf 999,7 hPa 0,2 l/m 0 min 2 min 0 W/m 8,4 km/h (2 Bft) 97,87 %
09.11.2016 22:18 2,4 C 2,2 C 1,1 C 97 % 15 lf 999,7 hPa 0,0 l/m 0 min 2 min 0 W/m 8,4 km/h (2 Bft) 95,74 %
09.11.2016 22:20 2,4 C 2,2 C 1,1 C 97 % 15 lf 999,7 hPa 0,0 l/m 0 min 2 min 0 W/m 8,4 km/h (2 Bft) 100,00 %
09.11.2016 22:22 2,4 C 2,2 C 1,1 C 97 % 15 lf 999,8 hPa 0,0 l/m 0 min 2 min 0 W/m 6,3 km/h (2 Bft) 100,00 %
09.11.2016 22:24 2,4 C 2,2 C 1,1 C 97 % 15 lf 999,8 hPa 0,0 l/m 0 min 2 min 0 W/m 6,3 km/h (2 Bft) 97,87 %
09.11.2016 22:26 2,3 C 2,2 C 1,1 C 97 % 15 lf 999,8 hPa 0,0 l/m 0 min 2 min 0 W/m 8,4 km/h (2 Bft) 100,00 %
09.11.2016 22:28 2,3 C 2,2 C 1,1 C 97 % 15 lf 999,8 hPa 0,0 l/m 0 min 2 min 0 W/m 6,3 km/h (2 Bft) 95,74 %
09.11.2016 22:30 2,3 C 2,2 C 1,1 C 97 % 15 lf 999,8 hPa 0,2 l/m 0 min 2 min 0 W/m 6,3 km/h (2 Bft) 100,00 %
09.11.2016 22:32 2,3 C 2,2 C 1,1 C 97 % 15 lf 999,8 hPa 0,0 l/m 0 min 2 min 0 W/m 6,3 km/h (2 Bft) 93,48 %
09.11.2016 22:34 2,2 C 2,2 C 1,1 C 97 % 15 lf 999,8 hPa 0,0 l/m 0 min 2 min 0 W/m 8,4 km/h (2 Bft) 95,74 %
09.11.2016 22:36 2,2 C 2,2 C 1,1 C 97 % 15 lf 999,8 hPa 0,0 l/m 0 min 2 min 0 W/m 8,4 km/h (2 Bft) 95,74 %
09.11.2016 22:38 2,2 C 2,2 C 1,1 C 97 % 15 lf 999,9 hPa 0,0 l/m 0 min 2 min 0 W/m 6,3 km/h (2 Bft) 97,87 %
09.11.2016 22:40 2,2 C 2,2 C 1,1 C 97 % 15 lf 1000,0 hPa 0,2 l/m 0 min 2 min 0 W/m 6,3 km/h (2 Bft) 95,74 %
09.11.2016 22:42 2,2 C 2,2 C 1,1 C 97 % 15 lf 1000,0 hPa 0,0 l/m 0 min 2 min 0 W/m 6,3 km/h (2 Bft) 97,87 %
09.11.2016 22:44 2,1 C 1,7 C 1,1 C 97 % 15 lf 1000,0 hPa 0,0 l/m 0 min 2 min 0 W/m 4,2 km/h (1 Bft) 93,48 %
09.11.2016 22:46 2,1 C 1,7 C 0,6 C 97 % 15 lf 1000,0 hPa 0,0 l/m 0 min 2 min 0 W/m 4,2 km/h (1 Bft) 97,87 %
09.11.2016 22:48 2,1 C 1,7 C 1,1 C 97 % 15 lf 1000,0 hPa 0,0 l/m 0 min 2 min 0 W/m 2,1 km/h (1 Bft) 97,87 %
09.11.2016 22:50 2,1 C 1,7 C 1,1 C 97 % 15 lf 1000,1 hPa 0,0 l/m 0 min 2 min 0 W/m 6,3 km/h (2 Bft) 97,87 %
09.11.2016 22:52 2,1 C 1,7 C 1,1 C 97 % 15 lf 1000,2 hPa 0,0 l/m 0 min 2 min 0 W/m 4,2 km/h (1 Bft) 97,14 %
09.11.2016 22:54 2,1 C 1,7 C 1,1 C 97 % 15 lf 1000,1 hPa 0,0 l/m 0 min 2 min 0 W/m 2,1 km/h (1 Bft) 94,34 %
09.11.2016 22:56 2,1 C 1,7 C 1,1 C 97 % 15 lf 1000,1 hPa 0,2 l/m 0 min 2 min 0 W/m 4,2 km/h (1 Bft) 95,65 %
09.11.2016 22:58 2,1 C 1,7 C 0,6 C 97 % 15 lf 1000,2 hPa 0,0 l/m 0 min 2 min 0 W/m 4,2 km/h (1 Bft) 97,87 %
09.11.2016 23:00 2,0 C 1,7 C 0,6 C 97 % 15 lf 1000,2 hPa 0,0 l/m 0 min 2 min 0 W/m 4,2 km/h (1 Bft) 97,87 %
09.11.2016 23:02 2,0 C 1,7 C 0,6 C 97 % 15 lf 1000,2 hPa 0,0 l/m 0 min 2 min 0 W/m 4,2 km/h (1 Bft) 97,56 %
09.11.2016 23:04 2,0 C 1,7 C 0,6 C 97 % 15 lf 1000,2 hPa 0,0 l/m 0 min 2 min 0 W/m 4,2 km/h (1 Bft) 98,11 %
09.11.2016 23:06 2,0 C 1,7 C 0,6 C 97 % 15 lf 1000,3 hPa 0,0 l/m 0 min 2 min 0 W/m 4,2 km/h (1 Bft) 97,87 %
09.11.2016 23:08 1,9 C 1,7 C 0,6 C 97 % 15 lf 1000,3 hPa 0,2 l/m 0 min 2 min 0 W/m 4,2 km/h (1 Bft) 97,83 %
09.11.2016 23:10 1,9 C 1,7 C 0,6 C 97 % 15 lf 1000,3 hPa 0,0 l/m 0 min 2 min 0 W/m 6,3 km/h (2 Bft) 97,87 %
09.11.2016 23:12 1,9 C 1,7 C 0,6 C 97 % 15 lf 1000,4 hPa 0,0 l/m 0 min 2 min 0 W/m 4,2 km/h (1 Bft) 95,74 %
09.11.2016 23:14 1,9 C 1,7 C 0,6 C 97 % 15 lf 1000,4 hPa 0,0 l/m 0 min 2 min 0 W/m 4,2 km/h (1 Bft) 95,74 %
09.11.2016 23:16 1,9 C 1,7 C 0,6 C 97 % 15 lf 1000,4 hPa 0,0 l/m 0 min 2 min 0 W/m 4,2 km/h (1 Bft) 97,56 %
09.11.2016 23:18 1,9 C 1,7 C 1,1 C 97 % 15 lf 1000,4 hPa 0,0 l/m 0 min 2 min 0 W/m 6,3 km/h (2 Bft) 98,11 %
09.11.2016 23:20 1,9 C 1,7 C 0,6 C 97 % 15 lf 1000,4 hPa 0,0 l/m 0 min 2 min 0 W/m 4,2 km/h (1 Bft) 97,83 %
09.11.2016 23:22 1,9 C 1,7 C 0,6 C 97 % 15 lf 1000,4 hPa 0,0 l/m 0 min 2 min 0 W/m 4,2 km/h (1 Bft) 96,00 %
09.11.2016 23:24 1,9 C 1,7 C 0,6 C 97 % 15 lf 1000,5 hPa 0,2 l/m 0 min 2 min 0 W/m 2,1 km/h (1 Bft) 97,87 %
09.11.2016 23:26 1,9 C 1,7 C 1,1 C 97 % 15 lf 1000,4 hPa 0,0 l/m 0 min 2 min 0 W/m 4,2 km/h (1 Bft) 95,74 %
09.11.2016 23:28 1,9 C 1,7 C 1,1 C 97 % 15 lf 1000,5 hPa 0,0 l/m 0 min 2 min 0 W/m 4,2 km/h (1 Bft) 97,87 %
09.11.2016 23:30 1,9 C 1,7 C 0,6 C 97 % 15 lf 1000,5 hPa 0,0 l/m 0 min 2 min 0 W/m 6,3 km/h (2 Bft) 95,74 %
09.11.2016 23:32 1,9 C 1,7 C 1,1 C 97 % 15 lf 1000,5 hPa 0,0 l/m 0 min 2 min 0 W/m 6,3 km/h (2 Bft) 95,65 %
09.11.2016 23:34 1,9 C 1,7 C 1,1 C 97 % 15 lf 1000,6 hPa 0,0 l/m 0 min 2 min 0 W/m 10,5 km/h (2 Bft) 97,87 %
09.11.2016 23:36 1,9 C 1,7 C 1,1 C 97 % 15 lf 1000,6 hPa 0,0 l/m 0 min 2 min 0 W/m 8,4 km/h (2 Bft) 95,74 %
09.11.2016 23:38 1,8 C 1,7 C 1,1 C 97 % 15 lf 1000,6 hPa 0,2 l/m 0 min 2 min 0 W/m 8,4 km/h (2 Bft) 91,49 %
09.11.2016 23:40 1,8 C 1,7 C 1,1 C 97 % 15 lf 1000,6 hPa 0,0 l/m 0 min 2 min 0 W/m 8,4 km/h (2 Bft) 93,62 %
09.11.2016 23:42 1,9 C 1,7 C 1,1 C 97 % 15 lf 1000,6 hPa 0,0 l/m 0 min 2 min 0 W/m 6,3 km/h (2 Bft) 91,30 %
09.11.2016 23:44 1,8 C 1,7 C 1,1 C 97 % 15 lf 1000,8 hPa 0,0 l/m 0 min 2 min 0 W/m 8,4 km/h (2 Bft) 95,74 %
09.11.2016 23:46 1,8 C 1,7 C 1,1 C 97 % 15 lf 1000,8 hPa 0,0 l/m 0 min 2 min 0 W/m 8,4 km/h (2 Bft) 95,74 %
09.11.2016 23:48 1,8 C 1,7 C 1,1 C 97 % 15 lf 1000,8 hPa 0,0 l/m 0 min 2 min 0 W/m 6,3 km/h (2 Bft) 97,87 %
09.11.2016 23:50 1,8 C 1,7 C 1,1 C 97 % 15 lf 1000,9 hPa 0,0 l/m 0 min 2 min 0 W/m 4,2 km/h (1 Bft) 89,36 %
09.11.2016 23:52 1,8 C 1,7 C 1,1 C 97 % 15 lf 1000,9 hPa 0,0 l/m 0 min 2 min 0 W/m 4,2 km/h (1 Bft) 98,00 %
09.11.2016 23:54 1,8 C 1,7 C 1,1 C 97 % 15 lf 1001,0 hPa 0,0 l/m 0 min 2 min 0 W/m 6,3 km/h (2 Bft) 93,48 %
09.11.2016 23:56 1,8 C 1,7 C 1,1 C 97 % 15 lf 1000,9 hPa 0,2 l/m 0 min 2 min 0 W/m 4,2 km/h (1 Bft) 89,36 %
09.11.2016 23:58 1,8 C 1,7 C 1,1 C 97 % 15 lf 1001,0 hPa 0,0 l/m 0 min 2 min 0 W/m 8,4 km/h (2 Bft) 93,62 %
_ Min-Zeit 02:32 02:00 01:56 00:08 00:00 19:14 - - - - 01:56 05:54
Minimum _ 0,2 C -0,6 C -2,2 C 93 % 0 lf 998,1 hPa - - - - 2,1 km/h (1 Bft) 82,98 %
_ Max-Zeit 14:54 11:54 12:44 07:12 10:24 00:00 06:22 00:00 03:02 12:48 17:58 02:28
Maximum _ 4,7 C 4,4 C 3,9 C 97 % 15 lf 1007,1 hPa 0,2 l/m 0 min 2 min 98 W/m 33,5 km/h
O (5 Bft)
100,00 %
Durchschnitt _ 2,6 C 2,6 C 1,5 C 96 % 9 lf 1001,4 hPa #13,4 l/m #0 min. #14:57 h 38 W/m 13,8 km/h (3 Bft) 95,94 %
© 2016 W. Hausmann